GFSFLT2_sfc_dewp_000.txt.gz
Dewpoint
63 64 65 66 66 66 66 66 66 67 67 68 68 68 68 68 67 67 68 68 67 67 66 66 65 64 65 65 65 65 60 56
62 63 63 64 63 63 63 64 65 66 67 66 66 66 67 67 66 66 67 67 67 66 66 65 64 64 64 63 64 64 62 57
61 62 63 63 60 58 63 64 64 64 65 64 64 64 64 64 61 61 64 65 65 66 65 65 64 63 62 61 62 60 60 58
53 60 61 61 55 59 64 63 63 63 63 63 63 64 63 62 60 61 59 59 59 64 64 63 62 58 58 55 55 56 58 56
47 53 57 59 60 60 61 63 62 60 62 61 63 61 61 63 61 60 59 58 60 58 63 62 62 61 59 59 57 57 59 59
42 50 55 57 55 55 56 54 55 55 59 62 63 62 62 61 61 60 58 59 59 59 61 61 62 62 61 60 59 59 59 58
38 44 49 52 54 52 52 51 50 51 52 56 57 59 60 61 58 58 58 60 60 59 58 59 61 61 61 60 60 59 57 58
35 38 45 46 49 50 48 46 44 44 47 52 55 56 59 60 59 58 60 61 61 60 60 59 60 60 61 60 60 59 59 59
32 34 39 41 43 42 39 37 38 40 45 52 53 53 56 56 54 53 54 58 59 61 61 61 61 61 59 57 58 59 60 59
30 25 35 37 39 35 33 35 36 39 44 46 48 48 49 49 50 51 52 53 54 54 54 55 58 59 59 58 57 56 58 59
30 32 32 33 35 34 38 40 35 36 40 39 43 42 43 41 42 45 45 43 46 46 47 51 50 52 53 57 58 57 58 56
30 30 33 33 32 34 34 35 36 35 35 35 38 38 39 37 38 41 39 36 36 37 38 38 42 48 46 51 58 59 59 58
29 30 32 30 30 30 30 31 33 35 33 34 36 35 35 38 34 34 37 36 38 37 35 35 34 40 38 46 50 58 58 57
28 28 30 30 27 29 31 31 30 31 33 36 36 36 36 33 34 33 36 33 36 37 37 33 31 35 35 35 44 50 55 55
30 28 28 30 30 28 29 30 31 29 30 30 34 38 38 39 37 37 36 36 34 36 36 35 30 31 34 36 32 40 44 48
32 29 27 28 32 28 32 26 24 25 30 30 32 36 38 39 39 40 41 38 37 35 31 35 35 31 29 27 39 34 30 32
36 31 29 29 32 34 31 32 29 30 31 34 35 36 36 37 38 40 41 40 39 40 39 37 34 33 31 30 30 30 32 34
37 32 29 31 33 34 35 34 32 30 31 30 29 30 30 33 33 36 37 38 38 38 39 39 38 36 33 32 29 27 25 26
33 31 29 30 33 34 35 35 34 32 29 28 29 27 27 29 30 31 30 31 32 33 34 35 36 34 35 32 30 29 29 27
32 28 29 29 32 33 34 32 28 27 27 27 26 26 26 28 29 29 29 30 30 31 30 30 32 36 36 36 32 28 27 27

GFSFLT2_sfc_dewp_003.txt.gz
Dewpoint
61 62 65 66 65 64 64 65 65 66 67 67 67 67 67 66 64 64 65 65 65 65 66 65 63 64 64 65 65 65 62 60
59 60 60 62 62 62 63 64 64 65 66 65 65 66 65 63 62 61 61 61 60 63 64 64 64 64 64 64 63 64 61 57
61 61 62 61 57 56 63 65 63 64 64 63 62 63 63 62 61 61 60 60 59 60 57 62 63 63 63 63 63 57 57 60
52 60 62 61 55 56 61 62 61 61 61 62 60 62 62 61 62 61 61 60 59 58 57 57 62 61 60 60 53 53 56 57
50 56 60 62 59 59 62 61 61 60 61 60 62 60 61 61 62 61 62 59 60 57 57 57 57 58 60 61 55 55 54 55
46 54 59 58 56 56 57 56 56 55 59 60 60 58 60 61 60 59 61 61 59 58 58 58 57 57 58 60 60 59 59 60
43 49 54 57 55 53 53 51 50 51 51 54 54 54 57 58 57 56 56 57 59 59 58 57 59 59 60 59 59 60 60 59
41 45 48 50 51 52 49 48 45 45 48 51 55 54 57 56 55 55 54 58 60 61 61 60 60 60 59 60 61 60 60 59
39 41 44 46 46 43 40 38 41 43 47 51 51 50 52 50 48 48 50 54 56 56 55 58 60 60 60 60 59 60 60 60
35 25 37 39 40 38 35 36 39 42 45 46 47 47 46 47 46 46 46 47 48 49 51 53 55 57 56 58 58 58 57 57
33 33 34 36 37 34 39 41 36 38 41 40 43 41 41 40 41 42 42 39 39 37 37 43 44 47 50 50 52 58 58 57
33 33 34 35 33 36 35 36 36 37 36 36 39 37 37 37 37 40 39 36 37 38 38 36 36 39 39 38 46 56 59 58
32 33 34 32 31 31 32 34 35 35 34 35 37 34 36 38 34 35 37 36 38 40 38 38 35 35 37 39 37 44 52 57
32 32 33 33 30 31 32 33 31 33 34 37 38 38 37 36 36 35 36 35 39 39 39 36 36 37 33 33 33 36 41 48
34 31 32 33 34 29 31 33 33 30 31 33 37 40 39 39 38 37 38 38 36 39 38 37 33 37 40 32 29 31 37 34
37 35 32 32 34 32 35 29 27 29 31 29 29 34 37 38 38 37 38 38 39 40 35 40 40 35 37 33 40 35 30 31
40 37 35 33 33 37 36 36 35 31 32 34 35 36 36 35 36 37 38 37 39 42 43 43 39 39 37 36 38 36 37 34
41 38 35 34 34 34 39 39 37 34 36 35 37 36 36 35 31 35 36 36 36 39 42 41 41 40 39 38 37 35 32 33
38 38 36 35 35 36 39 39 38 37 34 33 31 30 29 31 33 36 32 31 31 33 36 37 37 36 38 36 35 34 34 33
35 35 34 34 34 35 36 36 35 34 31 30 29 28 28 29 30 29 29 29 29 32 32 34 35 35 37 36 33 34 34 33

GFSFLT2_sfc_dewp_006.txt.gz
Dewpoint
62 65 66 66 65 65 65 65 66 66 66 66 67 68 66 65 66 65 63 64 65 65 65 66 65 65 65 65 65 65 64 61
60 61 64 65 62 63 64 65 65 65 66 66 67 66 65 64 63 63 62 63 61 60 59 63 65 65 64 64 64 64 63 61
63 61 64 63 62 61 64 65 65 65 65 65 64 65 63 62 62 62 61 60 60 58 57 58 60 62 64 64 63 61 58 59
55 61 63 63 58 58 65 63 63 63 63 63 63 63 63 62 62 62 61 59 59 58 57 56 56 56 59 62 60 57 55 58
53 59 63 64 63 63 62 62 63 62 62 62 62 60 61 61 61 61 61 59 59 57 57 57 56 57 57 59 60 60 58 55
51 59 61 61 60 59 60 58 59 59 60 60 61 60 60 59 59 58 58 59 58 58 57 56 56 57 57 57 58 60 60 58
49 54 58 60 58 59 58 56 55 54 56 56 58 57 58 58 57 57 57 57 57 58 57 56 56 57 58 58 57 57 59 60
49 51 55 55 57 57 56 54 52 52 53 55 56 57 57 57 55 55 54 55 56 58 58 58 58 59 58 59 58 57 58 59
46 48 52 52 53 53 52 49 48 50 52 52 52 54 52 51 51 50 51 52 53 54 54 55 56 58 59 59 59 59 59 60
43 36 46 48 49 46 45 46 48 49 52 52 50 49 49 49 48 49 48 49 47 46 46 47 51 53 55 55 55 56 58 58
41 41 40 44 45 44 45 46 46 47 50 48 48 46 45 45 46 48 46 43 43 41 42 41 40 41 41 46 46 49 51 56
41 41 42 44 43 44 45 45 45 45 45 45 45 44 43 42 44 44 43 42 42 43 42 42 41 41 35 36 40 42 50 55
40 39 42 40 41 41 41 43 43 44 43 43 44 43 43 43 43 41 43 42 42 41 42 41 41 42 40 37 38 37 39 41
40 39 40 40 39 40 41 42 41 41 42 44 43 45 43 41 43 40 41 41 41 43 42 40 41 41 40 37 34 33 38 38
41 39 39 40 40 38 40 41 41 39 39 40 43 44 45 44 43 43 42 42 42 42 41 40 39 40 39 38 34 32 34 34
44 42 39 39 43 37 40 36 33 34 37 37 37 44 44 43 43 43 43 42 41 42 40 43 41 38 40 38 39 37 34 32
45 44 42 41 42 42 39 39 38 39 40 40 40 40 40 39 40 42 42 42 42 41 41 41 41 40 39 39 38 37 37 35
46 45 41 42 42 43 43 40 41 40 40 39 39 39 40 41 38 39 39 39 38 38 38 37 38 38 37 36 35 34 33 32
45 43 41 42 44 44 42 43 42 41 41 40 38 36 35 36 36 36 36 35 36 35 35 35 35 34 33 32 32 32 33 31
42 39 39 40 41 42 43 43 41 41 40 38 36 34 34 34 33 34 34 34 35 35 34 33 34 34 32 33 33 32 32 30

GFSFLT2_sfc_dewp_009.txt.gz
Dewpoint
65 66 66 65 65 64 64 65 66 66 66 66 67 66 66 66 65 65 66 65 66 65 65 65 66 65 65 64 64 64 64 63
63 64 64 63 62 63 64 64 64 65 66 66 65 65 64 64 63 64 64 63 63 62 63 64 64 64 63 63 63 63 63 62
57 59 63 62 60 62 63 64 64 65 65 64 64 63 63 61 62 62 61 61 60 58 59 61 59 59 61 62 63 61 60 59
56 57 59 60 60 61 62 63 63 63 63 62 62 63 62 60 62 62 61 60 59 58 57 56 55 56 57 61 59 58 59 57
53 58 60 60 59 62 62 60 61 60 60 61 58 59 60 60 60 60 59 58 57 57 56 56 54 55 56 56 57 57 58 59
53 56 57 57 57 58 58 59 58 58 58 59 58 59 58 58 57 57 57 57 56 56 55 54 53 55 55 56 56 57 58 58
50 54 55 56 54 54 53 52 52 52 54 53 55 56 57 56 56 54 56 56 56 55 55 54 54 55 56 56 56 57 57 58
47 50 52 53 54 52 51 49 47 49 51 53 54 54 54 54 54 54 53 54 54 54 53 55 55 57 57 57 57 57 56 57
44 45 49 49 52 50 48 47 48 48 50 49 49 52 48 48 48 49 48 51 52 51 51 51 52 54 55 57 58 59 59 58
40 41 47 46 48 47 46 42 44 47 49 49 47 47 48 47 47 46 43 45 45 39 41 39 42 41 44 49 54 53 53 53
38 33 40 41 40 41 42 42 43 45 49 47 46 45 44 41 45 44 41 43 41 40 39 40 38 38 37 36 37 38 42 43
37 35 34 39 39 38 40 40 39 43 46 46 45 44 42 39 43 43 41 40 41 40 38 40 40 39 39 37 37 40 40 42
34 35 36 36 35 36 36 39 40 40 39 43 43 42 40 38 39 41 42 40 40 39 40 38 37 39 38 38 37 37 36 37
35 34 36 36 36 36 36 37 38 39 40 41 42 42 41 40 40 38 38 38 37 38 41 39 40 38 38 36 34 35 36 37
37 36 35 37 36 35 36 38 37 35 37 39 40 41 42 41 40 41 39 39 38 40 38 37 36 39 37 37 34 32 35 35
38 38 37 37 38 35 34 33 33 34 35 36 38 42 42 42 42 41 41 41 39 40 41 40 39 37 39 39 38 38 35 33
41 40 40 39 38 38 36 35 38 37 38 37 38 41 42 41 40 40 40 41 39 37 36 37 39 39 38 38 37 37 37 34
41 40 40 41 40 40 40 37 36 37 37 38 38 40 38 37 36 36 36 35 34 34 33 33 32 34 36 36 35 32 31 31
39 40 40 41 41 41 41 40 38 36 38 38 35 36 35 33 33 34 33 34 34 34 33 33 33 33 33 33 34 33 32 30
38 39 40 40 41 42 42 42 41 38 39 39 36 34 35 34 34 35 34 34 35 36 34 32 33 33 32 33 33 33 32 32

GFSFLT2_sfc_dewp_012.txt.gz
Dewpoint
64 65 66 65 65 64 64 65 66 66 67 67 66 66 66 66 66 66 66 66 66 66 63 63 65 64 65 65 64 64 63 63
63 64 64 62 62 64 64 64 64 65 66 66 65 65 65 65 65 65 64 64 63 64 65 65 64 63 63 63 63 63 61 61
63 63 63 61 59 61 64 64 64 64 65 65 63 62 62 61 63 63 62 61 60 59 59 60 59 59 60 61 62 61 59 57
56 59 61 61 59 60 61 63 63 63 63 63 63 62 60 61 61 62 60 60 59 58 58 57 55 54 56 58 59 58 57 58
56 58 59 58 59 61 62 61 62 61 61 61 61 60 60 59 59 59 57 58 56 56 55 54 53 54 54 55 55 56 57 57
55 57 57 56 58 61 60 59 60 59 59 59 58 58 57 57 57 57 56 56 54 54 54 54 52 52 53 54 55 55 56 56
54 56 56 55 54 53 52 53 54 54 54 54 56 57 56 56 56 53 54 55 55 54 57 57 55 54 55 55 55 55 56 57
52 53 54 54 52 52 50 49 48 50 52 53 54 55 55 56 54 54 53 54 53 52 51 51 51 53 54 56 56 56 57 57
49 50 51 50 52 50 49 47 47 49 50 50 50 52 49 52 50 51 51 52 52 49 48 46 46 47 45 48 53 54 52 54
45 47 49 49 50 49 48 47 46 47 49 49 47 49 48 47 47 46 45 47 47 39 39 37 38 39 39 40 45 43 42 44
40 42 46 45 46 46 43 43 41 45 49 48 47 47 46 44 47 45 42 43 41 39 38 38 37 37 37 38 37 36 39 39
38 33 40 40 39 39 40 41 40 43 48 47 47 46 44 41 44 43 41 41 41 40 37 39 39 37 38 37 37 37 37 38
36 34 34 38 36 36 36 38 39 40 42 46 46 44 43 40 41 43 42 40 40 39 39 38 37 38 37 37 36 36 36 35
33 33 35 36 35 35 35 35 37 38 40 41 45 44 42 40 40 41 41 41 39 40 40 39 39 39 37 36 33 34 35 36
35 34 34 36 36 35 36 37 37 37 37 39 41 43 43 41 40 41 39 40 39 37 38 37 36 39 37 36 33 31 35 35
37 37 36 36 37 35 34 33 33 34 35 36 39 41 41 42 41 41 40 41 39 40 39 39 38 36 38 39 38 37 34 30
39 39 39 39 39 38 37 34 35 36 37 35 36 39 41 42 42 42 42 41 38 34 33 31 35 34 34 35 34 35 35 32
39 39 39 40 41 40 39 38 37 37 37 38 38 39 39 40 38 37 36 36 35 34 33 32 32 33 32 32 33 31 28 30
38 39 39 41 41 41 41 41 40 39 37 37 39 38 36 34 34 35 35 36 37 37 38 37 36 34 32 31 31 32 32 32
39 40 41 40 41 41 41 42 43 42 41 39 38 36 36 35 36 38 38 39 39 40 39 38 37 34 32 32 32 32 32 31

GFSFLT2_sfc_dewp_015.txt.gz
Dewpoint
64 64 65 65 64 64 65 66 66 67 67 67 66 66 66 66 66 66 66 66 66 64 62 63 63 64 64 64 63 64 62 62
62 63 63 62 61 64 64 64 65 65 66 65 65 64 64 65 65 65 64 63 63 64 64 64 63 63 63 62 62 62 60 58
62 62 62 61 59 61 64 64 64 65 65 64 63 62 61 61 63 63 61 61 60 59 59 58 57 57 58 60 61 59 58 57
62 62 62 61 59 59 61 62 62 62 62 63 62 60 59 60 61 61 61 60 59 58 58 57 55 54 54 55 55 55 55 56
56 58 59 60 60 59 60 61 61 61 60 60 60 60 59 58 58 58 57 58 56 55 54 54 52 52 52 53 54 54 55 56
55 58 57 55 59 60 60 60 60 59 59 59 58 57 57 57 57 57 55 55 54 53 53 54 52 53 52 53 54 54 55 55
54 56 56 54 56 55 56 56 58 57 56 55 57 57 55 55 55 54 54 54 54 53 53 53 52 53 54 54 54 55 55 56
53 55 56 53 52 52 51 51 51 52 52 53 55 56 55 55 54 53 53 53 52 51 50 49 48 49 49 50 52 54 54 54
52 53 54 53 52 51 49 48 48 49 51 51 53 53 52 54 53 52 52 51 50 48 46 41 41 42 40 42 47 49 45 45
49 50 50 50 52 50 49 48 47 47 49 50 49 52 49 49 48 49 48 50 48 39 39 36 37 38 38 39 38 38 38 40
45 46 49 48 50 49 47 46 44 45 48 48 48 48 49 47 47 46 44 44 43 39 38 37 36 36 36 37 36 36 36 38
42 42 47 46 43 42 41 41 42 42 44 48 48 47 47 43 45 46 42 42 41 39 37 39 37 37 36 36 36 36 36 36
37 33 40 39 38 37 37 38 39 40 41 45 47 47 46 43 43 44 42 41 40 40 38 37 38 38 36 36 36 36 35 35
36 34 33 36 36 35 35 36 37 39 40 41 45 46 46 43 41 42 43 41 40 40 39 39 38 39 35 35 32 34 33 35
34 34 34 36 36 35 35 36 36 37 37 38 40 45 46 44 41 40 41 42 40 39 39 38 37 38 37 35 32 30 34 34
35 36 36 36 37 36 34 33 33 35 36 36 37 41 43 44 42 40 39 41 40 39 39 38 38 36 36 39 36 36 28 25
37 39 40 40 40 39 38 37 37 37 38 37 37 38 42 42 43 41 41 42 41 38 35 32 34 32 32 31 32 33 34 32
38 39 39 40 41 41 41 40 40 39 39 39 39 39 39 41 41 41 38 36 35 35 35 34 34 35 35 35 34 30 28 28
39 40 40 41 41 41 41 41 41 41 41 41 39 38 36 35 36 36 37 38 39 40 40 39 38 37 36 36 36 35 33 32
40 40 41 41 41 41 42 41 40 41 42 41 40 36 35 37 38 39 40 40 40 41 40 40 41 40 38 37 33 33 33 32

GFSFLT2_sfc_dewp_018.txt.gz
Dewpoint
62 62 63 64 64 64 65 65 66 66 66 66 66 66 66 66 66 66 66 66 66 65 63 64 64 64 63 63 63 63 60 60
61 61 61 61 60 63 63 64 65 65 66 65 64 64 64 65 64 64 63 62 62 62 61 60 59 59 59 62 61 60 58 57
61 61 61 59 58 60 63 64 64 65 65 64 62 61 60 60 63 62 61 61 60 59 59 58 57 56 57 57 58 56 56 56
61 61 61 60 59 58 60 61 61 61 62 61 61 59 58 59 61 61 61 60 59 58 58 56 54 52 53 54 54 54 55 55
60 61 60 60 60 58 59 60 60 60 59 61 60 60 59 58 57 57 56 58 55 55 53 53 51 51 52 53 54 54 54 55
57 57 58 57 59 59 59 59 59 59 59 59 59 58 57 57 56 56 55 54 53 53 53 53 52 52 53 53 53 54 55 55
54 56 57 55 58 58 58 58 59 58 58 57 57 57 56 56 55 54 54 53 53 53 53 52 52 51 52 52 53 54 53 53
52 55 56 54 55 54 56 55 56 55 55 54 54 56 55 54 54 53 53 53 52 51 49 47 47 47 44 45 46 52 46 45
51 54 55 53 52 52 51 50 50 51 52 52 53 55 54 54 53 52 53 52 50 49 47 42 40 41 39 41 44 45 42 42
51 52 53 53 52 51 50 48 48 47 49 50 50 52 51 52 52 52 52 51 50 43 39 37 37 38 38 38 38 38 38 40
49 49 50 50 50 50 50 48 47 46 46 48 49 49 51 48 49 49 49 47 48 41 38 37 36 36 36 37 37 37 37 37
46 46 48 48 47 45 43 42 42 43 44 46 48 48 48 48 47 47 46 44 44 40 38 39 37 37 35 36 37 37 37 37
43 41 43 44 41 39 38 39 39 40 41 42 45 47 47 47 45 45 45 42 42 41 39 37 38 39 37 35 36 37 37 37
40 37 35 41 38 36 36 36 37 39 40 40 42 46 47 46 45 43 44 43 41 40 39 38 38 39 36 35 32 34 34 36
36 36 35 35 36 36 35 35 36 36 36 37 38 41 43 46 45 44 42 43 42 40 39 38 37 38 38 35 33 31 33 34
34 36 37 37 37 36 36 34 34 36 37 37 36 39 41 43 45 44 42 42 42 41 40 39 37 37 38 39 35 35 25 22
38 39 40 41 40 40 40 39 40 41 40 40 40 40 39 40 42 44 43 41 42 41 39 38 36 36 31 32 32 33 33 27
40 40 40 41 41 41 41 40 41 40 39 41 41 41 40 39 40 41 40 37 36 35 36 36 36 37 37 36 35 33 30 30
40 40 40 41 42 42 42 41 39 38 38 39 40 40 36 36 37 38 39 39 39 39 39 39 40 40 40 39 39 38 38 36
40 41 41 41 41 42 41 38 37 37 38 39 39 37 36 38 39 39 39 40 40 41 41 41 42 41 39 38 36 37 37 35

GFSFLT2_sfc_dewp_021.txt.gz
Dewpoint
61 62 63 64 64 65 65 65 66 66 66 65 65 66 66 66 66 65 65 65 65 65 64 63 63 62 62 62 62 61 60 59
62 63 62 62 62 63 64 65 65 65 65 64 64 64 64 64 64 63 63 63 63 62 61 60 59 59 59 61 59 59 58 57
63 62 63 62 60 61 63 64 65 65 65 64 63 63 62 61 63 62 61 60 60 59 59 58 56 56 57 56 56 54 55 55
62 64 64 63 59 61 62 62 63 64 64 64 63 64 62 61 61 61 61 60 59 58 57 55 52 53 54 55 55 57 56 56
63 64 64 64 63 61 61 61 63 63 64 64 64 63 63 62 61 61 62 59 58 57 57 57 56 57 57 58 57 57 57 57
63 64 63 63 62 62 61 61 62 62 63 63 64 63 64 63 61 61 61 60 59 58 59 59 58 56 56 56 56 58 56 54
61 60 59 60 60 61 62 62 62 62 62 62 62 62 62 61 61 60 60 59 57 58 58 56 55 53 54 53 52 56 50 44
57 57 59 59 59 61 61 62 61 61 61 61 61 61 61 59 59 58 58 57 57 58 55 50 48 48 44 45 46 52 43 44
54 56 58 59 57 58 58 58 57 58 59 60 59 58 59 59 58 58 57 57 58 55 52 49 43 43 42 43 45 46 43 43
52 52 56 58 56 55 54 53 53 53 53 54 56 57 57 57 56 57 57 57 56 54 51 46 41 40 40 39 40 41 42 42
51 54 54 55 55 53 54 54 52 52 52 50 53 54 55 55 53 54 57 56 55 54 49 45 41 39 38 40 41 39 40 35
50 52 53 53 52 52 50 50 49 49 48 48 50 50 52 53 52 53 53 52 52 52 50 45 42 40 34 35 41 40 40 40
48 48 50 49 48 47 46 44 43 43 43 45 46 46 49 51 50 51 51 50 50 51 49 47 43 43 40 39 40 42 42 39
45 45 42 41 43 42 42 41 40 40 42 44 44 45 47 47 49 48 49 48 50 49 48 44 43 43 38 38 35 36 38 39
38 39 40 41 42 40 41 42 42 41 41 41 42 44 45 45 46 47 48 48 47 49 48 46 43 42 43 38 36 33 35 37
43 43 43 43 44 43 44 41 40 41 42 41 42 45 45 45 45 46 47 46 46 46 46 46 45 42 41 40 41 38 34 33
44 43 43 43 44 44 43 41 41 41 42 42 42 43 44 44 44 44 45 45 46 46 46 45 43 41 40 40 40 36 35 31
44 43 42 43 44 45 44 42 41 40 41 39 40 40 42 43 41 43 44 43 43 42 41 41 40 39 38 37 36 34 32 31
42 43 41 43 44 44 44 41 41 40 40 39 39 39 40 40 41 42 41 41 41 42 42 42 42 41 40 39 39 39 38 36
43 42 41 42 43 44 43 41 39 39 39 39 39 38 39 41 41 41 42 42 42 43 42 42 40 38 37 37 35 36 37 38

GFSFLT2_sfc_dewp_024.txt.gz
Dewpoint
57 59 62 65 65 65 65 66 66 66 66 66 65 66 66 66 66 65 65 65 65 64 63 63 62 62 62 62 61 60 59 58
59 60 59 61 61 64 65 65 66 66 65 64 64 65 64 65 64 64 63 63 63 62 61 60 59 59 59 59 58 59 58 57
61 59 62 62 60 61 63 64 65 65 64 64 62 61 61 61 63 62 61 61 60 59 58 57 56 57 56 56 56 53 55 55
61 63 63 63 58 61 62 61 61 62 62 63 61 63 62 59 61 61 61 60 59 58 57 55 54 51 51 55 50 54 52 53
61 64 65 64 60 59 57 58 60 62 64 63 63 63 63 62 61 60 61 59 56 55 54 51 52 53 52 54 52 53 50 50
61 63 64 63 57 56 58 57 59 59 62 64 63 60 61 61 59 58 59 57 58 56 54 56 56 54 53 53 53 51 48 49
61 63 62 58 60 59 61 61 59 60 61 62 63 59 59 59 58 57 56 55 54 55 54 54 53 51 49 48 46 49 50 43
61 61 59 57 57 60 60 61 59 60 58 59 63 62 59 57 54 53 52 52 52 53 53 52 48 47 45 44 41 44 43 42
60 59 57 57 56 57 56 55 58 55 54 58 59 60 57 57 53 51 49 51 56 56 54 53 49 45 42 41 41 45 41 41
57 55 55 56 55 55 53 52 53 51 52 52 55 56 57 55 51 50 51 52 52 51 51 49 48 45 41 38 39 40 42 42
55 57 56 54 54 53 54 54 52 49 51 49 51 53 54 54 51 51 53 51 51 51 50 50 47 44 40 39 40 39 40 37
53 54 54 53 53 53 50 50 48 48 46 45 48 47 50 51 49 51 51 50 49 49 51 49 48 45 38 36 39 40 40 39
50 50 51 50 50 47 45 44 43 42 41 44 47 46 48 49 47 48 49 50 50 51 49 50 49 47 45 42 40 42 44 41
45 44 43 42 42 43 44 44 42 44 45 47 46 47 47 45 47 47 48 47 49 50 51 49 48 47 45 42 38 38 40 41
42 43 44 45 45 43 44 44 43 41 42 41 43 44 44 45 45 46 47 47 46 48 49 49 47 47 47 44 38 36 37 39
45 44 43 44 46 44 45 42 40 42 43 42 41 42 42 42 44 45 47 46 46 46 45 47 47 45 46 45 46 44 39 38
46 44 44 44 45 46 44 43 42 42 42 43 42 41 40 39 42 45 45 45 45 47 48 48 46 45 44 44 45 43 43 41
45 43 42 44 44 45 45 43 43 41 40 38 36 36 36 39 40 44 45 45 44 44 45 44 44 44 42 42 40 38 38 39
43 43 41 41 42 42 42 41 41 39 39 37 38 36 36 39 42 43 43 44 43 43 43 42 42 41 41 40 39 38 38 37
44 42 41 40 40 40 41 41 40 39 39 39 38 37 38 42 43 43 42 41 41 42 43 42 40 39 38 38 38 38 38 37

GFSFLT2_sfc_dewp_027.txt.gz
Dewpoint
54 57 62 65 66 66 66 66 66 66 65 65 65 66 66 66 65 65 65 64 64 64 63 63 62 62 62 61 61 62 59 53
54 55 57 60 62 65 65 66 66 65 64 64 64 65 65 64 65 64 64 63 63 62 61 60 59 58 58 59 59 61 58 52
56 55 58 57 55 61 64 65 66 65 64 64 63 60 60 61 63 62 61 60 59 59 58 58 58 59 58 57 58 51 50 49
56 59 59 59 52 57 58 56 58 59 59 59 57 60 60 57 61 61 61 61 61 60 59 58 57 51 53 57 52 50 49 48
53 60 60 59 55 53 53 53 55 57 60 60 59 59 59 58 58 61 62 61 57 58 56 53 51 52 48 50 50 50 46 45
54 59 60 59 53 50 52 52 55 55 57 60 59 56 58 58 55 55 55 53 55 55 53 53 56 54 52 51 50 49 44 44
53 59 62 55 55 53 55 56 55 57 57 57 58 56 57 56 55 54 53 52 51 52 51 50 52 52 50 48 47 46 48 46
52 58 61 54 52 56 55 57 55 56 55 55 57 57 57 55 53 51 50 49 49 50 49 50 50 48 47 47 45 41 41 45
53 58 59 56 53 53 52 51 52 52 51 53 54 55 55 55 52 51 49 50 54 51 51 50 50 48 46 45 42 44 43 44
51 54 56 58 52 52 50 49 50 49 49 50 52 53 54 54 51 51 51 53 51 50 49 48 48 47 46 44 42 41 42 44
51 54 57 56 53 51 52 52 50 47 49 48 49 50 51 52 50 50 53 50 51 51 50 51 49 48 46 45 45 41 43 38
53 53 55 55 53 52 48 48 47 47 45 44 47 47 49 50 49 50 51 49 50 51 53 50 50 50 44 43 47 44 44 44
51 52 54 51 50 47 45 44 44 43 42 46 48 48 48 50 47 47 50 48 51 53 53 53 52 52 51 49 48 48 48 44
46 46 46 44 42 44 46 46 44 45 46 46 46 47 47 45 46 45 45 45 49 51 52 50 51 52 49 49 45 45 45 45
44 44 45 46 46 43 44 43 44 42 43 44 45 46 45 45 44 44 46 47 45 49 49 49 46 48 51 48 45 42 43 44
45 44 44 44 47 45 47 44 43 44 45 44 44 45 42 40 40 42 44 45 47 47 43 48 48 45 46 44 47 48 45 44
46 44 43 44 46 47 46 45 44 42 42 42 41 39 39 37 39 42 44 44 46 47 47 46 44 44 43 45 45 44 45 43
46 44 42 43 44 44 44 44 42 39 39 38 37 38 37 39 37 41 43 43 44 44 46 45 44 44 43 43 41 40 39 38
45 43 42 42 43 43 43 42 41 40 40 39 40 38 36 37 39 41 41 43 44 43 43 42 42 41 41 40 39 38 38 37
45 43 41 40 41 42 42 43 40 41 42 41 39 37 36 39 40 43 44 43 43 44 44 42 41 41 39 39 40 39 39 38

GFSFLT2_sfc_dewp_030.txt.gz
Dewpoint
57 61 64 66 66 66 66 66 66 66 66 66 66 66 66 66 66 65 64 64 64 64 63 62 61 61 62 62 62 63 61 58
56 59 60 62 64 65 65 65 65 65 65 64 65 65 66 66 65 64 63 63 62 61 61 60 60 60 60 60 59 60 57 57
58 57 61 63 62 63 65 65 65 64 64 64 63 63 63 63 63 63 62 61 60 59 59 59 60 60 61 60 60 55 52 52
59 61 62 60 51 62 63 62 63 64 63 63 63 61 61 58 62 63 63 62 62 61 61 61 60 55 57 60 56 53 51 49
57 63 63 61 60 58 59 60 62 63 61 61 62 61 63 63 62 61 62 63 61 61 59 58 56 56 54 55 53 52 51 49
58 61 62 60 58 58 58 57 61 60 62 62 63 61 61 60 59 58 59 59 58 56 56 56 54 56 55 54 53 52 50 49
56 61 62 61 57 60 60 60 61 61 60 61 61 60 61 59 58 57 56 55 54 54 53 53 54 54 54 52 50 49 49 49
58 61 64 58 57 58 59 61 60 61 59 60 58 59 60 58 57 55 54 54 53 53 53 54 53 53 51 51 48 47 45 45
56 60 63 59 57 57 56 56 54 56 56 57 56 56 57 57 56 55 54 55 55 55 54 53 53 52 51 50 50 48 46 45
54 54 61 61 59 57 55 54 55 54 54 54 55 54 55 56 56 56 56 56 55 54 54 52 52 51 50 50 48 46 46 46
53 56 59 60 59 55 56 55 54 54 55 53 55 53 55 54 54 55 56 54 54 54 51 52 51 51 50 49 49 48 46 43
55 56 59 59 59 56 54 53 53 54 52 52 53 51 53 53 52 53 54 52 52 52 53 53 52 52 49 48 48 49 48 46
54 54 57 55 55 53 51 51 50 50 49 51 51 51 50 51 50 50 51 50 50 50 50 49 49 52 50 49 48 49 50 47
49 48 49 48 48 49 50 50 50 49 50 48 50 51 50 48 50 48 48 48 48 48 49 48 48 49 48 47 45 45 46 46
46 47 48 50 51 48 49 50 50 48 48 48 49 50 49 49 47 46 47 47 47 46 46 46 45 45 47 46 43 41 43 45
48 48 47 47 50 49 51 49 46 47 47 47 46 46 46 44 44 45 46 47 46 46 44 46 45 43 45 45 45 45 43 42
50 48 46 48 48 49 48 47 47 46 45 45 45 45 45 43 42 43 45 45 45 46 46 45 45 43 42 41 41 41 41 41
50 47 45 47 46 47 47 47 46 44 44 44 44 43 43 42 41 42 44 45 44 44 44 43 42 41 40 40 39 38 37 37
48 47 45 45 47 47 47 46 46 45 45 44 43 41 40 39 42 44 44 43 43 43 43 43 42 41 40 40 39 39 38 37
46 45 43 43 45 46 47 47 46 45 45 44 42 41 40 43 43 42 42 42 42 42 42 42 42 41 39 39 40 40 40 39

GFSFLT2_sfc_dewp_033.txt.gz
Dewpoint
61 63 65 65 65 65 65 65 66 66 66 66 66 66 66 66 66 65 65 64 64 63 62 62 61 61 61 61 61 61 59 57
59 61 62 63 63 64 64 64 64 64 64 64 64 65 65 65 65 65 64 64 63 62 61 61 61 61 61 61 61 60 54 55
58 58 60 61 62 63 64 64 64 63 63 63 63 63 64 64 64 64 63 63 62 61 60 60 59 59 60 60 61 57 52 52
57 58 60 61 59 62 62 63 63 63 62 62 62 62 63 62 62 62 62 62 62 62 61 61 60 56 55 59 57 55 53 50
59 58 57 57 57 61 62 62 63 63 62 60 61 59 60 60 61 60 60 61 60 61 60 59 57 55 54 55 54 52 50 50
58 58 56 55 55 56 57 58 59 60 61 59 58 58 58 57 60 60 60 60 60 60 58 57 56 54 54 54 53 51 50 49
57 57 57 54 53 56 55 56 58 57 59 59 57 56 56 56 55 55 54 53 52 52 51 51 51 51 52 53 52 49 48 47
57 57 57 54 55 53 55 55 57 56 58 57 57 57 55 55 54 53 53 52 52 51 50 50 50 51 51 50 50 48 46 45
57 59 55 52 53 53 53 57 51 53 55 54 55 54 54 54 53 53 53 54 52 52 51 52 52 52 51 51 50 49 47 45
57 59 59 57 54 53 51 52 52 50 51 54 53 53 52 52 53 52 53 53 52 52 52 51 51 51 50 50 50 48 47 45
57 59 60 63 60 57 52 51 49 50 52 52 52 52 52 51 50 51 51 52 52 52 52 51 51 51 50 49 49 49 48 46
55 55 57 58 58 55 54 51 50 50 49 49 48 50 50 50 49 49 50 49 49 49 48 48 49 50 48 49 50 50 50 49
47 46 52 51 50 47 47 46 46 47 48 47 47 48 49 48 48 47 47 47 46 46 47 47 46 48 46 46 47 48 48 49
47 45 46 46 46 46 46 47 46 46 49 49 49 48 48 46 46 45 45 46 46 46 45 44 45 45 45 44 41 42 44 45
44 45 45 47 47 48 48 48 47 45 45 46 44 45 44 43 43 44 43 45 45 44 44 45 44 44 45 44 41 40 41 43
45 44 44 46 46 46 45 45 44 45 44 43 43 44 43 42 41 42 43 44 43 45 45 44 43 41 43 40 41 42 38 36
45 45 45 45 45 45 45 44 44 43 43 43 43 43 42 41 40 42 44 45 44 43 43 43 43 41 40 39 38 36 37 35
45 44 43 44 44 45 44 43 43 43 43 43 43 42 41 41 43 44 43 43 43 42 42 42 40 40 39 38 38 36 35 35
43 43 41 42 43 45 45 44 43 42 42 42 40 39 40 43 42 42 42 41 41 41 41 40 40 39 38 37 38 36 38 37
41 41 40 42 44 43 42 43 43 43 42 41 40 39 41 41 41 41 40 40 40 39 39 40 38 39 37 40 39 39 40 38

GFSFLT2_sfc_dewp_036.txt.gz
Dewpoint
63 64 65 65 65 65 65 65 65 66 66 66 66 66 66 66 66 65 64 64 63 62 61 62 61 61 61 61 60 61 56 53
61 62 62 62 63 64 64 64 64 64 64 64 64 64 65 65 65 65 64 64 63 62 62 61 60 60 60 60 60 60 54 51
59 61 61 61 62 63 64 64 64 63 63 64 63 63 63 63 63 64 64 63 63 62 61 60 59 59 60 59 61 56 53 52
58 59 59 60 59 62 62 62 62 61 61 62 62 61 62 63 63 63 63 62 62 61 62 61 60 57 55 57 55 54 53 50
57 59 60 59 58 61 60 61 62 61 61 61 61 62 61 62 60 60 59 61 60 60 60 59 58 56 55 54 54 53 51 50
58 58 59 58 58 60 61 61 61 62 61 60 59 59 58 59 59 59 59 59 58 58 58 58 57 56 54 54 54 52 51 49
57 56 55 53 55 56 57 58 60 61 60 59 57 57 55 55 54 54 54 52 53 52 52 51 50 50 50 51 52 52 51 49
56 55 55 52 54 55 54 58 57 56 59 58 56 57 54 54 52 53 52 52 52 51 51 50 51 51 51 52 51 50 49 48
56 56 54 55 53 53 53 56 54 57 56 56 56 55 54 53 52 52 52 53 52 52 51 52 51 51 50 51 51 51 50 49
56 57 57 58 57 54 51 52 51 52 54 54 54 54 53 52 51 50 51 52 51 51 51 50 50 50 50 50 50 50 49 48
60 59 59 60 59 57 53 52 50 51 52 52 52 52 52 50 50 50 50 49 49 48 47 49 48 47 45 46 49 49 49 49
55 56 59 59 58 56 52 50 47 49 49 48 49 51 50 49 48 47 47 47 46 45 45 45 46 45 44 43 48 49 49 49
51 52 53 53 52 51 49 48 46 47 48 49 49 48 47 46 45 45 45 45 45 45 45 44 43 45 44 43 44 45 45 45
47 45 46 46 47 47 48 48 47 45 46 45 44 44 43 41 42 43 43 43 43 43 43 43 44 45 43 43 40 41 42 39
45 44 45 46 46 46 46 47 45 43 43 42 43 43 42 41 41 42 43 44 43 43 43 42 42 43 42 41 38 37 36 38
44 44 45 45 46 45 44 44 42 43 42 43 43 42 41 41 42 44 44 44 43 43 43 42 42 41 42 40 40 40 34 31
44 44 44 44 44 44 45 43 44 44 43 43 42 41 41 43 44 43 43 43 42 41 41 40 41 39 38 37 37 36 36 33
44 42 42 43 44 44 43 43 42 41 42 42 41 40 42 43 42 42 42 41 41 41 40 39 38 38 38 36 35 34 34 34
42 40 40 44 44 43 42 42 41 41 42 40 39 39 41 41 41 40 40 40 40 39 39 38 37 36 36 35 36 38 38 37
41 40 41 43 39 37 37 38 39 40 40 40 40 40 41 41 40 39 39 39 38 38 37 37 37 35 35 36 37 38 38 37

GFSFLT2_sfc_dewp_039.txt.gz
Dewpoint
62 63 65 65 65 65 66 66 66 66 66 66 66 66 65 66 65 64 64 63 62 61 61 61 61 61 60 60 60 61 53 51
60 61 62 61 62 64 64 64 64 64 64 64 64 64 64 65 64 65 64 63 62 61 61 61 60 60 60 60 60 58 53 51
59 60 60 60 60 62 64 64 64 63 63 64 62 62 62 62 63 64 64 63 62 62 61 61 60 60 59 59 59 54 53 51
59 59 59 60 60 61 61 61 61 61 61 61 61 60 61 62 63 63 63 62 62 62 62 62 61 57 56 57 54 53 53 50
57 58 59 59 59 61 60 61 61 60 60 60 60 61 61 61 60 59 59 60 59 59 59 59 58 57 56 55 54 53 52 51
57 58 59 58 59 59 59 60 61 60 61 61 60 59 59 59 59 58 57 58 57 57 57 57 55 55 54 53 53 53 53 52
57 58 59 59 58 59 59 59 60 61 61 61 58 57 56 57 57 55 53 52 51 51 51 50 50 50 51 50 50 51 51 51
57 57 58 55 56 56 57 58 60 60 60 59 57 56 55 54 53 53 52 52 52 51 51 51 51 51 50 51 51 51 51 50
56 55 53 55 54 53 54 57 56 56 58 58 56 56 54 53 52 52 52 52 51 50 49 48 48 48 48 49 50 50 50 50
56 56 56 59 58 55 52 52 51 52 55 54 54 54 53 52 50 50 50 49 48 47 47 46 46 46 45 46 46 47 49 48
59 60 61 61 59 57 55 49 51 50 51 52 51 52 51 50 48 48 47 47 46 46 45 45 44 43 44 43 43 46 47 48
57 59 60 59 57 55 52 48 48 48 48 48 48 48 48 47 45 45 46 46 45 44 44 43 43 44 44 43 44 45 46 46
55 55 55 53 52 51 49 48 49 48 43 45 44 44 43 43 43 43 43 42 42 43 43 42 42 44 43 41 43 42 43 39
50 49 47 49 47 47 48 46 44 44 43 43 43 42 41 40 41 42 43 43 43 43 43 43 43 43 41 40 38 37 39 35
44 44 45 45 46 46 46 46 44 42 42 41 42 41 41 41 42 43 43 43 43 42 41 40 40 41 40 39 34 33 34 35
44 45 45 45 45 44 43 42 41 42 42 42 41 41 41 43 43 43 43 42 41 41 42 40 40 39 39 39 38 37 32 32
44 44 44 44 44 44 43 43 43 43 44 43 41 41 43 43 43 42 41 41 41 40 39 39 39 38 37 36 35 35 34 33
41 41 42 44 44 43 43 42 42 41 42 41 41 40 42 41 41 40 40 40 39 39 38 37 37 37 37 35 35 32 32 33
41 41 43 43 42 41 41 41 40 40 41 40 39 38 40 40 40 39 39 39 38 38 37 36 36 35 34 35 35 35 37 37
40 42 41 37 35 35 36 37 37 38 39 39 39 40 40 40 39 39 38 38 37 37 36 36 36 35 34 35 36 37 36 37

GFSFLT2_sfc_dewp_042.txt.gz
Dewpoint
63 64 66 67 67 67 67 67 67 67 66 66 66 65 65 65 65 64 63 62 62 61 61 61 61 61 61 61 60 59 52 52
60 61 61 61 62 65 65 65 65 65 65 64 64 64 64 64 64 64 63 62 62 62 61 61 61 61 61 60 60 57 52 51
59 59 59 59 60 62 64 64 64 63 63 64 62 62 62 62 63 63 63 62 62 62 62 62 61 60 60 59 57 54 53 52
58 59 59 59 60 61 60 61 61 61 61 61 61 60 60 62 62 63 63 62 62 62 62 62 60 58 56 57 54 54 53 52
57 58 58 58 59 60 59 60 60 60 60 60 60 60 60 60 60 59 58 59 58 58 58 57 57 56 56 55 54 54 53 53
56 58 58 58 58 59 59 59 60 59 59 59 59 59 59 58 59 58 57 57 54 54 53 52 51 51 51 51 52 52 52 52
55 57 58 58 58 58 58 59 60 59 60 60 60 58 57 57 57 55 53 52 51 51 51 51 51 50 50 50 50 51 51 51
56 57 59 57 56 57 57 58 59 59 60 60 59 57 55 54 53 52 52 52 51 50 50 48 47 48 46 47 49 48 49 50
57 55 54 55 53 53 54 56 56 57 58 58 56 56 54 52 52 50 50 50 48 47 46 46 45 45 44 45 46 45 47 48
57 58 58 58 57 55 53 52 53 54 54 54 53 55 53 50 49 48 48 47 46 46 46 44 44 43 43 43 43 44 46 48
59 60 59 58 58 55 54 52 53 53 52 50 50 50 49 46 45 46 46 46 46 45 44 43 42 42 44 43 43 44 45 46
59 60 59 57 57 56 55 53 47 46 47 47 45 46 46 45 45 45 44 43 42 43 42 42 41 44 43 43 43 43 45 41
59 58 58 57 55 52 48 47 47 44 43 43 43 42 43 42 42 41 42 42 43 44 43 42 42 43 42 40 41 42 40 37
54 52 51 49 47 48 45 44 43 42 42 42 41 40 40 40 41 42 42 42 42 42 41 41 41 42 39 38 35 35 37 36
44 45 45 46 46 46 45 44 43 41 41 41 41 41 41 41 42 42 42 42 41 40 40 39 38 39 40 38 34 32 35 35
44 44 44 44 44 42 41 41 40 42 42 41 40 41 42 43 43 42 41 41 39 39 40 39 38 37 38 39 37 37 33 32
44 44 44 44 44 44 43 42 43 43 43 42 41 41 43 42 41 40 39 40 40 39 39 38 38 37 37 37 35 34 34 34
42 42 43 44 43 43 42 42 41 40 41 41 40 40 41 41 40 39 39 39 38 38 37 37 36 36 37 36 35 32 31 33
40 42 43 42 41 40 40 40 39 37 38 38 39 38 39 40 39 38 38 38 37 37 36 35 35 35 34 34 35 35 35 36
40 43 39 35 35 35 35 35 35 36 37 39 39 39 39 39 39 38 38 37 37 36 36 35 35 35 34 34 34 35 37 37

GFSFLT2_sfc_dewp_045.txt.gz
Dewpoint
67 67 68 68 68 67 67 67 68 67 67 66 66 65 65 65 65 64 63 62 62 61 61 62 61 61 60 61 60 58 52 50
65 65 66 66 66 66 66 66 65 65 65 64 64 64 64 64 63 63 62 62 62 62 62 62 62 61 61 60 58 57 54 52
61 61 62 63 63 63 64 65 64 64 63 64 62 62 62 61 62 62 63 63 63 63 63 62 62 60 59 59 58 53 54 53
59 60 60 61 58 62 62 61 61 61 62 62 62 63 63 62 63 62 62 62 61 61 61 60 60 55 53 56 53 54 53 53
58 60 60 60 59 60 59 60 60 61 62 62 63 62 63 63 63 62 62 60 58 57 56 55 55 54 54 54 54 53 53 52
57 59 60 60 59 59 60 59 60 60 61 62 63 62 63 63 62 62 61 57 56 55 54 55 55 53 52 51 52 50 49 49
57 59 60 60 60 60 60 61 61 61 61 62 62 62 62 61 61 58 56 55 55 54 53 51 50 49 48 47 47 46 45 44
57 59 60 60 59 59 60 61 61 63 63 64 63 62 61 58 57 55 54 53 52 50 50 48 47 46 45 46 45 43 44 45
57 58 58 58 56 55 55 54 56 58 60 60 60 60 59 57 54 52 50 50 51 49 48 47 44 42 42 42 42 42 42 46
57 58 59 59 57 55 53 53 55 57 58 58 57 57 55 53 50 49 49 47 46 46 44 44 42 40 42 41 41 41 43 46
59 60 60 59 57 57 56 55 54 55 55 52 52 51 50 48 48 47 46 44 44 43 42 43 40 40 39 38 42 37 41 41
60 60 60 58 57 56 55 53 48 48 49 46 48 47 47 46 45 45 44 43 43 43 43 41 41 41 34 36 38 36 44 42
61 59 58 57 55 53 49 48 47 45 44 45 45 44 44 46 44 44 44 43 44 44 41 41 38 41 37 33 35 44 44 39
59 58 56 54 51 49 47 46 45 44 44 44 44 44 45 44 45 43 44 42 43 43 42 38 37 41 37 34 28 31 38 38
53 52 53 52 50 48 47 46 46 44 44 43 43 44 44 45 45 44 44 43 40 41 41 40 36 39 41 36 30 27 33 34
48 47 47 48 48 47 46 44 43 44 45 43 42 44 44 44 44 44 44 42 41 40 39 41 40 36 37 39 40 39 33 30
47 47 46 47 47 47 46 46 45 45 46 45 45 45 44 43 43 43 42 41 41 41 40 39 39 37 36 36 35 34 34 33
46 46 45 46 46 46 46 46 44 42 42 42 42 43 43 43 42 42 42 41 40 39 40 39 39 38 37 36 34 32 31 31
44 44 43 44 43 43 43 41 39 37 37 36 38 39 41 42 43 43 41 41 41 40 40 39 39 38 39 37 38 37 37 36
44 43 40 37 39 38 39 37 36 36 38 38 39 39 40 42 43 42 41 41 41 41 41 40 41 41 40 39 38 37 37 36

GFSFLT2_sfc_dewp_048.txt.gz
Dewpoint
65 67 68 69 68 68 68 68 68 67 67 67 66 66 66 65 64 63 62 62 61 61 61 61 61 61 60 60 59 59 49 46
63 63 63 64 66 67 67 67 66 66 65 64 64 64 64 64 64 63 62 62 62 62 62 62 61 60 60 59 58 59 49 47
61 59 61 61 60 63 65 65 65 64 63 64 62 59 60 60 62 62 62 62 62 62 61 60 61 60 59 59 59 49 49 48
57 59 59 58 53 59 60 58 56 59 59 61 60 62 62 60 62 61 61 60 60 59 59 59 59 51 51 55 49 52 49 49
55 59 60 58 57 56 54 55 57 61 62 63 63 62 63 62 63 61 61 59 55 55 55 53 55 53 52 53 51 50 48 47
55 57 59 60 56 55 57 57 59 60 61 64 64 66 65 63 61 62 61 57 56 56 55 57 56 53 51 50 50 48 45 44
55 58 58 59 60 59 61 62 61 62 62 63 63 64 64 62 61 59 58 56 55 55 54 52 52 50 49 48 47 46 46 43
57 58 60 59 60 61 61 62 61 62 62 64 65 65 63 61 59 57 56 54 52 52 51 49 48 48 46 47 47 46 45 46
57 59 60 60 59 58 57 56 57 57 60 62 63 63 62 61 59 55 52 52 52 51 49 48 45 44 44 44 44 45 43 44
57 59 60 60 60 58 57 57 58 59 59 60 60 60 58 55 53 52 51 48 47 46 45 44 43 43 43 42 41 41 41 40
59 61 61 61 58 59 59 59 59 56 54 53 53 52 52 50 49 48 48 47 46 45 44 44 42 40 38 34 34 35 33 29
60 61 60 59 60 59 59 56 50 50 48 48 49 48 48 47 47 48 46 45 45 44 43 41 39 37 33 30 35 34 33 37
61 61 60 61 59 56 52 49 47 47 45 47 47 46 46 48 46 46 46 45 44 43 40 38 35 37 36 31 31 34 42 39
60 59 59 59 57 52 49 48 45 44 45 47 47 47 47 46 47 46 44 40 41 41 40 36 34 35 36 35 27 27 29 37
57 58 58 55 51 49 48 48 46 44 45 44 46 46 46 47 46 44 42 39 36 39 38 38 34 34 36 35 31 27 31 30
52 53 52 51 51 47 46 43 42 45 47 46 45 47 46 44 42 41 41 40 39 37 34 39 36 33 32 31 35 34 32 28
49 47 47 48 48 47 47 46 46 46 46 45 45 44 43 40 40 41 40 38 39 40 39 38 36 34 32 32 33 32 32 30
49 47 46 47 48 48 48 46 42 40 39 37 36 36 36 38 38 40 41 40 40 39 39 39 38 37 34 35 34 33 32 32
48 46 45 46 46 45 42 40 37 36 36 35 34 32 33 35 37 40 39 40 41 40 39 39 38 37 37 35 35 33 32 32
46 45 43 42 41 39 39 37 37 36 36 36 35 35 35 38 40 41 41 41 41 40 39 38 39 39 37 36 33 32 32 32

GFSFLT2_sfc_dewp_051.txt.gz
Dewpoint
66 67 68 69 68 68 68 68 68 67 67 67 66 66 66 65 64 62 62 61 61 61 61 62 61 61 60 60 60 61 53 45
64 65 65 66 66 67 67 67 66 66 65 65 64 64 64 64 64 63 62 61 61 62 62 61 60 59 59 59 60 60 49 46
59 58 60 61 62 65 66 66 65 64 63 64 62 57 59 60 62 63 61 61 61 61 61 60 60 61 59 58 60 48 48 46
57 60 59 57 52 59 58 57 55 58 58 60 59 60 61 60 61 62 62 61 61 61 60 60 60 51 51 57 48 50 48 48
55 58 58 56 57 55 54 53 58 60 62 61 62 60 62 60 59 61 62 62 55 56 55 52 55 54 51 52 51 50 47 46
54 57 58 57 54 51 53 53 57 58 60 63 63 62 64 62 58 58 62 56 56 54 52 56 55 54 52 51 51 49 47 46
55 56 58 59 58 59 59 59 61 63 63 64 67 67 66 65 65 59 58 57 54 54 53 52 52 51 50 50 49 49 49 46
56 57 58 59 60 62 63 61 61 60 62 64 64 64 63 61 60 58 56 54 53 53 52 51 50 51 49 48 48 48 47 47
57 58 59 60 59 58 58 57 57 58 59 61 62 63 62 61 58 56 54 52 53 51 50 51 48 46 46 45 45 45 43 44
57 57 60 60 60 58 58 58 59 60 59 58 60 60 58 56 54 53 52 49 48 49 47 45 45 43 42 40 40 37 38 40
58 61 61 61 59 59 59 59 59 59 57 54 55 54 53 52 50 49 48 46 47 46 45 44 41 39 36 35 38 34 37 32
60 61 61 60 62 60 59 58 57 54 51 50 50 49 48 47 48 49 47 46 46 45 44 41 38 36 31 33 38 35 35 35
61 60 61 61 60 57 54 53 52 49 46 47 47 47 47 49 46 46 47 43 44 43 40 39 36 35 33 33 34 37 38 36
60 59 59 58 54 54 53 50 46 44 46 48 47 48 47 45 48 45 44 42 40 40 40 37 35 34 32 31 30 29 29 33
59 57 57 54 51 49 49 47 47 44 46 46 47 47 46 46 45 44 42 39 36 39 39 37 34 33 35 31 28 26 28 29
52 52 51 49 49 46 47 41 42 46 46 46 46 47 45 42 41 40 41 40 40 39 35 39 37 32 32 29 33 32 28 28
51 50 48 49 47 47 46 46 47 46 46 45 44 44 42 40 38 39 40 39 39 40 40 38 36 34 32 32 33 33 33 32
49 47 46 48 48 48 48 47 45 43 41 40 38 36 35 36 35 39 39 39 39 38 43 41 39 38 36 37 35 34 33 35
48 46 45 48 49 48 46 44 41 40 39 37 36 33 33 35 37 38 36 37 38 40 41 41 38 38 39 37 36 34 33 31
47 46 45 46 45 43 42 39 39 38 37 36 36 36 36 38 38 37 37 37 40 38 42 41 39 41 39 38 36 35 33 31

GFSFLT2_sfc_dewp_054.txt.gz
Dewpoint
67 68 69 68 68 68 68 68 68 67 67 66 66 66 65 65 64 64 63 63 62 62 62 62 62 61 60 59 60 61 57 49
66 67 67 67 67 67 67 66 66 65 65 64 64 64 64 64 64 64 63 63 62 61 63 62 62 61 60 59 60 61 54 49
65 65 66 65 66 66 66 65 65 64 63 63 62 59 61 62 62 63 63 62 62 62 62 62 61 61 61 61 61 52 50 51
61 62 63 63 58 64 63 61 60 60 60 61 61 63 62 60 61 63 63 63 63 63 62 61 61 56 58 59 54 53 51 50
59 62 61 59 58 60 58 58 61 62 63 63 63 63 64 63 64 64 63 63 61 61 59 58 57 57 55 55 53 52 51 49
57 60 61 60 58 59 58 58 62 63 64 63 65 65 65 64 63 63 62 60 58 58 58 57 56 54 54 53 52 52 50 50
57 59 61 60 61 63 63 64 64 65 66 66 66 65 63 63 64 62 61 59 57 55 55 54 53 52 53 52 50 49 50 49
56 58 62 62 63 64 62 61 59 60 62 63 64 64 64 63 62 62 59 57 56 54 55 52 51 51 50 51 50 50 48 48
57 59 61 61 60 60 58 58 58 58 60 62 62 62 62 59 57 55 54 54 52 51 50 51 49 47 45 43 43 43 40 41
56 57 61 61 60 58 58 59 59 60 58 59 59 59 57 57 55 54 53 51 50 50 49 46 45 44 42 40 41 40 37 38
60 61 61 60 60 60 59 60 60 59 57 56 56 55 54 53 53 52 52 50 51 48 47 46 42 40 36 35 40 38 39 35
62 61 60 59 60 60 59 60 58 57 55 53 53 52 52 52 52 50 50 48 48 47 45 43 42 40 34 34 38 40 37 37
62 60 59 60 59 58 55 55 54 52 51 51 51 50 50 51 51 50 49 47 46 43 42 41 40 40 37 34 35 34 34 34
61 60 59 59 59 58 56 54 52 50 51 51 51 50 49 48 49 47 47 45 43 43 42 41 39 40 35 35 31 31 33 32
59 59 59 59 57 54 54 53 51 49 50 50 50 49 48 47 47 46 44 43 42 42 41 40 38 38 38 34 30 28 31 33
59 59 58 56 53 52 51 47 47 49 50 50 49 50 46 45 43 43 43 43 42 42 39 40 39 37 37 36 36 35 32 31
57 54 52 52 51 51 51 50 51 50 49 48 47 47 46 44 42 43 42 43 43 43 43 42 40 38 36 36 35 36 35 34
56 51 49 51 51 52 50 51 48 47 46 44 44 42 41 40 39 42 43 42 42 42 40 41 41 40 39 38 37 36 35 35
51 48 48 50 51 51 51 48 45 43 43 43 41 40 40 41 42 41 41 40 41 41 41 41 41 40 39 39 39 38 37 35
49 47 47 49 50 48 47 44 45 43 43 40 42 41 41 42 41 40 40 40 40 40 41 41 41 41 39 39 39 39 36 34

GFSFLT2_sfc_dewp_060.txt.gz
Dewpoint
66 66 65 67 67 67 66 66 66 66 66 65 65 65 65 65 64 64 64 63 63 62 61 61 61 62 62 61 60 58 50 52
65 65 67 66 66 66 65 65 65 64 64 64 63 63 63 64 63 63 63 63 62 61 61 61 60 61 62 61 59 56 52 55
64 66 66 66 65 65 64 64 64 63 63 63 62 60 61 61 62 63 63 62 62 61 61 60 60 60 62 60 57 50 53 53
65 65 65 64 63 63 62 61 61 61 60 60 59 60 60 61 61 62 62 62 62 62 62 61 58 54 54 55 51 50 50 51
65 64 64 63 62 61 60 60 59 59 59 59 59 61 61 61 61 62 61 62 59 56 53 53 52 51 51 50 50 49 49 49
63 63 61 59 61 59 58 58 60 61 63 63 62 61 60 60 61 60 57 55 54 53 51 50 49 48 47 46 45 46 45 45
59 61 56 58 59 59 61 62 63 63 63 63 62 61 61 59 57 56 54 53 51 49 49 47 45 44 43 41 42 40 37 39
55 56 57 61 60 59 59 60 60 61 62 62 61 60 58 57 55 54 53 50 49 47 45 43 42 41 39 39 40 37 36 38
55 58 60 58 57 57 56 58 60 60 60 60 58 57 55 53 52 50 49 49 47 45 43 42 40 39 37 37 38 37 37 36
56 60 58 57 57 57 56 57 57 57 58 56 56 55 52 49 49 49 50 48 46 44 42 40 39 38 36 35 35 36 35 36
59 59 58 57 57 57 56 56 56 56 54 53 52 52 51 49 49 49 49 47 45 44 42 40 38 37 34 34 33 34 34 35
59 58 58 57 57 56 56 55 54 54 52 51 50 51 51 50 48 47 45 43 43 41 38 39 38 37 34 32 34 34 33 34
58 57 57 57 56 55 54 53 54 52 51 51 49 49 49 47 47 44 43 41 41 39 39 37 36 37 33 34 34 33 33 33
58 57 57 56 56 56 55 54 53 51 50 49 48 48 48 46 44 42 41 40 39 38 38 37 37 37 34 33 31 32 33 33
57 57 57 56 56 56 53 50 49 48 48 47 47 47 46 45 43 42 40 40 39 38 38 36 35 36 36 34 31 30 32 33
57 57 57 56 58 56 52 48 46 47 47 47 47 46 44 43 42 41 40 41 39 40 39 38 37 36 36 36 35 34 31 31
58 58 58 58 58 55 51 47 46 48 48 47 47 46 45 43 41 40 40 41 39 38 39 37 38 36 36 36 34 34 34 32
58 57 58 57 55 51 49 47 47 47 46 44 43 41 42 41 39 39 38 38 38 38 38 38 38 38 38 37 36 35 34 33
56 54 49 49 48 47 46 43 42 41 41 41 40 40 41 39 39 36 36 35 34 34 34 34 36 38 37 37 38 37 37 37
51 48 48 46 43 42 42 41 41 41 41 42 41 41 39 39 35 33 32 33 33 34 34 34 35 37 36 36 37 37 38 38

GFSFLT2_sfc_dewp_063.txt.gz
Dewpoint
66 66 66 66 67 67 66 67 67 67 66 65 65 65 64 65 65 64 64 63 63 62 62 62 63 63 61 60 58 57 53 56
65 65 65 66 65 65 65 65 65 65 65 64 64 64 64 64 64 64 63 63 63 63 62 62 61 62 60 58 58 57 54 55
64 64 65 65 65 64 64 65 64 64 63 63 61 60 60 60 62 63 63 63 63 63 62 61 58 59 59 57 55 52 52 53
60 63 65 65 63 63 62 62 61 61 60 59 59 59 60 61 61 62 63 63 63 61 59 57 54 50 49 52 50 49 49 50
62 63 64 63 62 61 60 59 59 59 59 58 59 60 62 61 61 61 60 58 53 52 50 49 47 46 45 44 43 42 43 43
62 63 63 62 61 59 58 57 58 59 59 60 61 60 60 59 57 56 55 53 51 50 49 46 44 42 42 40 39 38 38 39
62 63 60 60 59 57 58 60 61 62 62 62 61 59 58 57 55 53 51 50 48 46 44 42 41 39 40 38 37 37 37 38
59 60 57 59 59 60 61 62 62 62 61 61 61 59 56 55 53 52 51 48 46 44 42 40 39 38 37 37 36 36 35 35
57 56 60 59 59 59 59 60 61 60 60 59 58 56 54 52 51 49 48 46 45 42 40 39 38 37 35 34 35 36 35 35
55 59 58 58 57 57 58 58 58 58 58 56 55 54 51 49 49 49 48 46 44 42 40 38 38 37 34 33 33 34 34 34
58 58 57 56 56 56 56 56 56 56 55 54 52 50 49 49 49 48 46 45 44 41 40 38 36 35 34 32 33 33 34 34
59 58 57 56 56 55 55 54 54 53 52 51 51 51 50 48 47 47 44 43 41 39 37 38 37 35 33 32 34 33 34 34
58 57 56 56 55 54 53 52 52 50 50 50 50 50 49 47 45 43 42 41 39 38 38 36 36 36 33 34 33 33 33 33
57 57 56 56 55 55 55 53 52 50 50 49 49 48 47 45 43 42 40 41 39 38 37 37 37 37 34 33 31 32 33 33
57 57 56 56 56 54 52 51 49 49 48 47 47 48 46 45 43 42 40 40 38 37 37 36 35 36 36 34 31 30 32 33
57 57 57 57 56 55 53 49 47 48 47 47 47 47 46 44 42 41 40 40 39 39 39 37 37 36 36 36 35 33 31 31
57 57 57 57 57 56 52 48 47 47 47 46 47 45 44 42 40 40 40 40 38 37 37 37 38 36 35 35 34 34 33 32
57 57 57 57 57 55 52 48 47 47 47 46 43 42 42 40 39 39 39 39 37 36 35 35 36 37 37 37 36 34 33 32
57 57 56 56 56 53 51 48 47 47 45 42 40 40 40 39 40 40 37 33 33 33 33 33 33 34 35 36 36 36 36 35
57 56 51 51 50 49 46 44 44 43 41 41 42 41 39 41 41 36 33 32 33 33 33 34 35 35 34 34 35 36 36 36

GFSFLT2_sfc_dewp_066.txt.gz
Dewpoint
66 66 66 66 66 67 67 67 67 67 66 66 65 65 65 65 64 64 64 63 63 64 63 63 62 62 61 60 59 59 56 57
65 65 65 65 65 66 66 66 66 65 65 64 64 64 64 64 63 64 64 64 64 63 62 63 61 60 60 60 59 57 54 55
65 65 64 65 65 65 65 65 65 64 63 63 61 60 59 60 63 63 64 64 63 61 60 58 57 58 58 57 53 50 51 52
62 63 62 64 63 62 62 62 61 61 60 59 59 59 60 60 62 63 63 61 60 58 56 54 49 46 45 46 43 43 43 44
61 62 63 62 62 61 60 59 59 59 58 59 59 61 60 61 61 60 56 54 50 48 45 44 43 43 41 41 40 40 40 40
59 59 62 62 61 59 58 58 58 58 59 60 61 61 59 57 57 55 52 50 48 46 44 43 41 41 40 39 38 38 38 39
56 57 61 61 59 57 57 58 59 60 60 61 60 59 56 55 53 51 49 47 44 43 41 40 39 38 38 37 37 37 36 38
59 61 60 59 57 57 58 60 61 61 61 60 60 57 55 53 52 50 49 45 43 41 39 38 37 37 36 37 37 36 35 36
59 60 58 59 58 59 60 60 61 60 60 60 58 56 53 50 49 47 46 44 42 40 39 39 37 36 34 35 36 35 35 35
57 59 59 58 58 58 59 59 59 58 58 57 56 53 50 49 48 48 47 45 43 41 39 37 37 35 33 34 34 35 35 35
56 59 57 57 56 56 57 57 57 56 56 54 52 50 50 50 49 47 46 45 43 41 40 37 35 35 34 34 35 34 35 33
58 57 56 55 55 55 54 54 54 54 53 51 49 49 49 49 47 46 45 43 40 39 38 38 37 36 34 34 35 34 35 35
57 56 55 55 55 53 52 52 52 52 50 50 50 49 48 47 45 43 42 40 38 38 38 36 37 36 34 35 34 34 34 34
57 56 55 55 54 54 53 52 52 50 50 50 50 49 48 45 43 41 41 39 39 38 37 37 37 37 34 33 32 33 33 34
57 56 56 55 55 55 53 53 50 49 49 48 48 48 47 44 43 41 40 39 38 37 37 37 35 36 36 34 31 29 32 34
57 57 56 56 55 54 53 52 49 49 48 47 47 47 46 44 42 41 40 40 39 39 39 37 37 35 37 36 35 34 32 31
56 56 56 56 56 55 55 53 49 48 47 46 46 44 43 42 41 41 41 41 39 38 38 37 37 36 35 35 35 34 33 32
55 56 57 57 56 56 55 52 48 47 46 46 44 43 41 41 41 41 39 39 38 35 35 34 35 36 37 36 35 34 33 32
56 57 56 57 56 57 55 51 47 47 46 44 41 41 40 40 40 41 38 36 35 34 33 32 33 33 34 35 36 36 36 35
57 57 56 56 56 56 53 50 49 47 45 41 41 41 40 43 43 42 36 34 33 34 33 34 35 35 35 35 35 35 36 36

GFSFLT2_sfc_dewp_069.txt.gz
Dewpoint
66 67 66 66 67 67 67 67 66 66 66 66 66 65 65 64 64 64 64 64 64 64 63 63 63 62 61 61 61 60 55 55
65 66 65 65 65 66 66 66 65 65 65 64 64 64 64 64 64 64 64 64 64 63 62 62 61 61 59 59 57 57 53 53
64 63 62 62 63 64 66 65 64 64 63 63 61 60 59 60 63 64 64 63 62 59 57 57 57 56 54 53 52 49 51 51
63 62 62 62 64 64 64 62 61 61 60 60 59 61 61 60 62 63 61 60 58 56 53 53 49 43 42 46 41 42 42 43
60 60 62 63 63 62 61 60 60 61 60 59 61 61 62 63 63 59 55 53 47 47 46 43 45 42 41 42 41 40 39 37
59 61 62 63 62 60 59 59 59 58 60 62 63 62 63 61 58 56 53 49 48 46 45 46 44 43 42 41 41 37 37 37
59 60 61 62 60 59 59 59 59 60 61 63 64 62 60 57 56 53 51 47 45 44 43 41 41 40 40 39 38 39 40 39
56 59 60 61 59 59 58 59 59 60 61 62 62 60 58 56 54 51 48 45 43 42 41 38 37 38 38 39 38 36 37 43
53 56 61 61 59 58 59 60 62 62 62 62 61 59 57 55 51 48 45 45 46 43 41 40 37 35 38 37 36 38 36 37
54 58 61 61 59 58 59 61 63 63 63 62 60 58 55 52 49 48 48 46 43 42 40 39 38 36 38 36 36 36 36 36
59 61 61 61 60 61 62 63 62 62 62 59 57 55 54 51 49 49 48 45 45 42 41 40 38 37 35 38 38 36 37 33
59 60 60 59 60 61 61 61 61 60 59 58 55 52 53 51 49 49 47 44 43 42 42 41 40 40 33 36 39 37 38 38
59 59 59 58 58 59 59 59 58 58 57 53 52 51 52 52 48 48 46 44 43 44 42 42 41 42 38 38 37 37 38 37
59 58 58 58 57 57 57 57 56 56 53 52 51 51 51 50 48 46 46 43 44 44 43 41 41 41 39 37 32 32 35 36
58 58 58 58 58 56 55 55 53 52 52 50 50 50 49 48 47 46 45 44 42 44 43 42 39 41 41 36 29 25 31 36
58 58 58 57 57 57 55 54 52 52 50 50 50 51 49 47 46 46 45 44 44 44 43 42 41 38 40 38 40 37 26 25
59 58 57 57 57 57 56 55 55 53 50 50 50 49 48 46 46 46 45 44 45 44 44 43 41 36 34 35 37 36 38 34
59 58 57 57 57 57 56 55 54 51 49 49 48 47 46 46 43 45 44 43 42 42 41 40 38 38 37 37 34 32 31 34
57 57 57 58 58 57 57 56 54 52 50 49 48 46 44 44 44 43 42 41 41 39 38 38 38 36 37 36 38 37 36 33
57 56 57 58 58 57 57 56 54 52 50 49 48 46 44 44 44 44 42 42 39 37 37 37 38 40 40 40 38 35 35 33

GFSFLT2_sfc_dewp_072.txt.gz
Dewpoint
68 68 68 67 67 67 67 66 66 65 66 66 66 65 65 65 65 65 65 64 64 64 64 63 63 62 61 61 60 59 52 51
66 65 65 64 65 66 66 65 65 65 65 64 64 64 64 64 64 65 65 65 62 62 63 62 60 59 58 58 57 57 51 48
63 62 62 63 62 65 65 65 64 63 62 62 59 55 55 57 63 64 64 63 61 60 59 58 57 55 54 53 53 50 49 47
62 61 60 59 61 63 63 60 56 55 56 57 54 57 55 56 61 62 61 60 58 56 56 55 55 48 46 51 46 46 43 42
61 60 60 59 59 60 64 60 59 57 58 55 58 58 59 59 58 56 55 56 49 50 49 48 49 47 46 46 44 41 39 36
61 59 59 59 58 57 60 58 58 57 59 59 60 59 61 61 58 56 54 52 52 51 49 50 48 46 44 42 40 35 34 32
57 58 59 60 61 60 59 58 57 58 60 61 60 61 62 60 58 54 53 52 51 50 48 45 43 41 39 37 37 38 37 35
58 57 58 59 57 60 58 58 58 59 60 62 64 62 62 58 57 55 52 51 49 47 43 39 38 38 38 38 37 35 36 39
58 59 60 61 59 58 56 57 57 58 61 64 62 62 61 60 56 53 50 49 49 44 42 40 36 34 36 36 35 37 35 35
58 55 60 62 59 56 55 57 60 61 62 64 62 61 60 57 54 52 50 47 44 43 40 37 38 37 38 35 36 37 37 35
53 56 61 62 60 56 57 60 62 63 64 63 62 60 58 55 53 52 50 46 46 41 41 42 40 39 35 38 39 37 38 31
54 58 61 62 61 60 60 61 62 63 63 62 61 58 57 55 52 52 48 46 44 42 43 42 42 40 33 35 40 37 36 36
57 59 62 62 59 56 57 60 61 62 62 61 59 54 55 55 51 50 48 46 44 46 45 44 43 44 40 40 39 39 39 36
57 58 61 60 55 55 58 60 61 61 59 58 56 55 54 52 51 49 48 46 46 46 45 44 44 44 40 38 34 33 36 35
55 57 58 59 58 55 58 59 59 59 58 55 53 53 52 50 51 49 49 45 44 46 45 45 43 43 42 36 28 25 26 31
55 55 57 59 60 57 57 55 56 57 57 54 50 51 51 50 49 50 49 45 46 45 45 45 44 40 40 36 37 34 24 22
58 58 59 60 61 60 58 57 57 57 55 53 51 51 51 49 49 49 48 45 46 47 46 45 42 38 32 31 32 32 33 31
59 58 58 59 60 60 60 59 57 55 54 53 52 51 51 50 48 49 48 46 46 46 46 45 41 36 33 32 30 28 28 29
58 58 57 59 59 60 60 59 58 55 54 53 51 49 49 50 49 48 46 46 45 44 43 40 38 36 35 31 33 33 32 31
57 57 57 58 59 59 59 59 58 56 55 52 51 50 49 50 49 47 46 43 44 43 41 38 39 38 38 36 33 33 32 31

GFSFLT2_sfc_dewp_075.txt.gz
Dewpoint
67 68 68 68 67 67 66 66 66 66 66 66 66 65 65 65 65 65 66 66 66 65 64 64 63 62 61 59 58 61 49 47
66 66 67 66 66 66 66 65 66 66 65 64 64 64 64 64 64 65 65 64 64 63 63 62 60 59 58 57 57 59 48 45
65 63 62 63 63 65 65 65 65 64 63 62 59 57 56 59 64 64 63 63 63 62 61 59 57 55 53 53 55 46 43 43
62 61 60 61 62 62 62 60 58 57 56 56 51 57 57 57 62 62 61 61 60 60 59 59 57 49 47 52 45 44 40 39
60 61 61 61 62 62 62 57 56 57 59 56 57 58 60 59 59 56 55 57 51 52 51 50 52 50 50 47 41 38 36 34
59 60 59 59 58 55 57 61 58 58 58 62 63 59 61 60 56 56 56 53 53 52 52 53 51 47 44 42 40 37 35 33
59 59 58 58 56 53 53 59 58 59 60 61 61 60 63 61 60 56 54 54 53 53 52 49 45 42 40 38 36 38 38 36
57 58 59 59 59 59 60 60 59 59 62 62 64 66 64 63 58 55 54 54 53 52 49 43 40 40 40 38 37 36 37 38
56 56 57 56 56 55 54 56 57 58 62 65 63 64 62 61 58 57 54 53 53 49 44 42 38 37 38 37 36 37 35 35
56 56 56 56 56 54 54 54 58 61 61 65 63 63 62 61 57 55 53 52 48 44 42 40 40 40 41 38 37 36 36 35
57 58 57 59 58 57 56 59 63 63 65 64 62 61 61 58 56 54 54 49 47 44 43 44 42 41 38 39 41 37 37 30
57 59 60 60 61 59 57 59 62 64 64 63 62 60 59 57 55 55 52 47 46 44 46 44 44 43 38 39 43 41 38 37
53 55 59 61 61 56 54 54 61 63 62 62 61 59 59 58 54 54 51 48 46 48 47 47 45 46 43 42 41 42 41 38
52 54 59 60 56 53 52 54 60 62 62 61 60 58 57 57 55 52 50 47 48 49 48 45 46 46 43 41 37 37 38 38
52 55 58 60 55 51 52 59 58 60 60 59 58 57 57 55 54 52 50 49 47 49 48 47 45 45 45 42 35 32 32 32
55 55 58 59 61 54 55 58 56 57 59 58 56 56 55 53 52 51 51 48 48 48 47 48 47 43 46 39 40 38 33 31
55 55 55 57 59 60 55 55 55 59 59 57 56 55 54 52 51 51 51 48 49 49 49 48 45 44 41 36 36 33 34 32
57 55 54 56 61 61 59 57 56 57 57 55 55 54 52 53 50 51 51 50 49 48 49 47 44 43 38 36 32 30 30 30
57 55 55 56 60 61 61 60 59 58 57 55 55 53 52 52 51 52 50 49 48 48 46 45 44 43 39 36 32 33 34 33
56 55 56 56 58 60 60 60 59 58 57 56 56 54 54 53 53 52 50 48 47 46 45 44 45 45 40 38 35 34 34 32

GFSFLT2_sfc_dewp_078.txt.gz
Dewpoint
68 68 68 67 67 66 66 66 66 66 66 66 66 65 66 66 67 68 68 67 66 65 65 64 63 61 59 58 60 61 54 51
65 67 67 66 66 65 65 66 66 66 65 65 64 64 65 65 65 66 66 66 64 63 63 62 61 58 57 56 58 58 49 52
65 63 64 65 65 65 65 65 65 64 63 63 60 58 60 62 64 65 65 64 63 62 62 60 58 56 55 55 56 47 43 46
62 62 63 63 63 63 63 63 61 60 59 58 56 59 61 62 62 63 63 63 62 62 60 58 56 50 49 54 45 44 42 42
60 60 60 61 61 61 61 60 57 58 58 58 59 60 61 61 58 57 58 59 54 56 56 53 54 53 49 45 44 42 43 46
59 59 58 57 57 57 58 58 60 55 58 60 60 60 60 59 58 57 56 55 54 55 56 54 51 46 44 43 42 41 40 47
59 59 58 57 56 57 59 59 57 58 60 62 62 60 60 60 59 57 55 56 56 55 54 52 47 44 42 40 40 40 40 47
58 58 58 56 57 58 60 58 59 60 62 62 62 62 62 62 60 59 56 56 56 56 53 48 46 44 42 40 39 39 38 39
56 57 57 57 56 55 55 58 60 59 61 61 61 63 62 61 59 58 56 58 56 52 47 45 43 40 41 40 41 38 39 36
56 57 56 56 55 55 55 54 58 60 60 61 60 61 62 61 59 58 58 55 52 49 47 45 45 44 42 41 39 38 37 35
56 56 56 56 54 53 51 53 59 60 61 60 60 62 62 62 60 59 56 54 52 48 47 47 45 43 42 42 42 41 38 34
55 55 56 55 54 52 54 58 58 60 61 62 62 62 62 61 60 57 56 52 51 49 47 46 47 46 42 43 44 43 41 38
54 54 55 55 58 55 55 55 60 61 61 60 62 62 61 60 58 56 56 52 49 50 49 47 46 47 45 46 47 45 42 40
56 56 57 58 58 56 54 56 59 61 61 62 62 61 61 59 58 56 55 52 51 50 49 49 48 48 45 44 41 42 42 42
55 56 58 58 59 58 55 58 60 60 61 61 60 60 59 59 58 56 54 52 51 51 49 48 47 48 45 43 39 36 37 39
53 53 58 59 60 54 53 53 56 58 60 60 59 59 58 58 57 55 53 53 51 51 51 50 47 46 47 45 43 39 36 34
53 54 57 58 60 60 55 58 58 60 60 59 57 57 57 58 56 55 54 53 53 51 51 48 48 45 42 39 40 40 40 36
55 56 57 58 60 60 60 58 57 57 58 58 57 57 56 56 55 54 54 53 52 51 50 49 45 42 43 41 38 35 33 33
56 56 55 57 60 60 60 59 58 58 58 57 55 55 55 54 54 53 53 52 51 50 48 46 44 43 42 41 39 36 36 36
55 55 54 54 60 60 60 60 58 59 58 58 56 55 54 53 54 53 53 51 49 48 47 46 44 44 41 40 39 39 38 36

GFSFLT2_sfc_dewp_081.txt.gz
Dewpoint
62 68 68 68 67 66 66 66 66 67 67 67 67 67 68 69 69 68 68 66 65 64 64 63 61 60 59 59 59 59 54 56
61 64 67 66 66 66 66 66 66 66 66 65 65 66 66 67 67 67 66 65 65 64 63 61 59 57 57 57 57 58 52 54
62 63 65 65 66 66 66 66 65 64 64 63 62 62 63 64 66 66 65 64 64 63 62 59 57 55 54 57 53 46 46 49
63 64 64 65 65 64 63 62 60 60 58 57 60 61 61 63 64 64 64 63 63 62 60 59 55 49 47 51 42 43 41 47
62 63 64 64 64 63 61 60 58 57 57 57 61 61 60 60 60 60 59 60 57 58 56 52 50 48 43 41 40 44 46 49
60 60 59 58 57 58 58 57 57 56 56 59 59 60 57 56 56 56 55 54 53 53 54 50 45 43 41 39 38 42 46 51
57 57 56 55 54 52 51 52 51 56 59 61 59 59 58 58 56 56 55 54 54 53 52 48 43 41 40 39 38 38 47 48
57 57 57 56 56 56 58 57 59 60 61 61 61 61 60 60 56 56 56 55 54 53 52 45 43 40 38 38 38 37 43 47
57 56 56 56 56 57 58 60 60 59 60 60 60 61 60 60 58 56 55 55 54 53 49 45 43 41 38 39 38 37 36 40
56 56 56 55 55 55 57 57 57 58 59 60 59 61 60 59 58 56 56 54 50 46 44 42 40 40 40 39 39 37 35 34
55 55 54 55 55 55 55 55 56 57 58 60 57 58 61 60 59 58 55 52 49 46 46 43 43 43 41 41 39 39 36 35
54 53 54 55 53 51 50 51 56 58 58 59 57 59 60 61 60 57 56 52 49 47 44 46 43 44 42 41 41 41 39 37
54 54 54 53 51 49 48 49 57 57 58 59 59 59 60 60 57 57 53 50 48 47 46 44 44 45 43 44 45 44 40 39
54 54 54 52 52 48 51 53 56 57 59 59 59 60 60 60 56 55 54 50 48 47 46 46 47 45 44 42 40 41 42 41
52 53 53 52 54 53 55 56 57 58 59 59 60 61 60 60 56 55 54 51 48 47 47 47 45 46 44 42 38 36 36 38
51 52 52 54 56 56 56 53 55 57 58 59 60 59 58 58 58 55 53 51 48 49 49 48 46 45 45 44 41 39 35 33
52 54 56 56 57 57 56 54 56 58 59 58 58 58 57 57 57 55 52 50 49 50 49 48 47 44 41 39 39 40 38 34
53 53 55 57 58 58 57 53 56 57 58 58 57 56 56 56 57 55 52 51 50 50 49 46 44 43 41 41 38 35 33 32
52 51 52 57 58 58 58 56 56 57 57 57 56 55 55 56 56 54 53 52 51 50 49 46 43 41 41 40 40 37 36 35
50 50 51 55 58 58 59 58 57 57 58 58 57 56 55 55 54 53 53 51 50 49 47 45 44 43 41 41 40 40 39 37

GFSFLT2_sfc_dewp_084.txt.gz
Dewpoint
62 62 65 66 68 67 66 66 67 67 68 68 68 68 68 68 68 67 66 65 64 64 63 61 61 59 61 61 60 60 57 57
61 61 62 66 67 66 66 66 66 67 67 67 67 67 68 68 67 66 65 64 64 63 61 60 59 58 60 60 59 58 55 57
60 62 63 65 66 66 66 66 66 66 66 65 65 67 67 66 65 65 65 64 63 62 60 60 57 58 57 56 54 48 51 53
62 64 65 65 65 65 65 63 62 63 62 61 62 64 65 65 65 64 64 63 62 61 60 57 53 42 44 50 43 42 46 50
63 63 64 64 64 64 62 60 59 58 60 60 61 62 63 63 62 61 60 60 57 56 53 52 47 42 41 42 44 44 46 50
62 62 63 63 62 61 59 57 57 57 60 60 59 59 59 59 59 57 55 55 54 53 52 45 43 41 40 41 44 44 48 52
58 59 59 59 59 59 57 56 55 58 59 59 57 56 56 56 55 54 53 53 53 53 49 44 42 40 39 38 41 45 46 49
57 56 56 55 54 55 54 54 59 60 61 60 59 59 58 56 54 53 53 53 53 52 48 43 41 39 38 38 39 45 45 47
55 55 55 55 55 53 51 59 60 60 61 61 60 59 59 56 55 55 55 54 53 52 46 44 41 39 38 38 38 41 45 46
55 56 55 55 57 57 58 59 59 59 59 60 61 60 59 58 57 55 55 55 54 50 46 43 42 40 38 39 38 36 36 45
55 55 55 55 56 56 56 56 56 58 58 59 58 61 60 58 57 56 55 53 51 46 44 42 41 41 39 39 39 37 35 40
55 55 55 55 56 56 55 55 54 56 57 58 57 57 60 58 57 57 54 50 47 45 44 45 43 43 40 40 40 39 37 37
53 54 55 54 53 52 52 51 52 56 57 57 57 56 59 59 59 56 53 50 48 45 44 44 44 44 43 43 44 44 40 37
53 53 53 51 51 49 48 48 53 55 57 57 58 58 59 60 58 56 53 50 47 47 45 45 44 45 43 42 39 40 41 39
53 52 52 51 50 48 52 53 55 55 56 56 57 58 59 60 57 57 53 50 47 47 45 45 45 45 44 42 38 36 36 37
53 52 52 51 51 49 49 48 50 55 55 56 58 59 59 60 58 55 54 52 49 47 47 46 46 44 44 43 40 39 35 33
53 53 52 51 52 51 50 54 54 56 56 56 57 58 59 59 58 56 55 52 49 48 48 48 46 45 44 43 40 39 37 34
52 51 52 51 52 53 53 53 54 56 56 57 57 58 58 57 58 56 54 52 51 49 48 48 46 44 42 41 38 36 35 35
51 50 51 51 52 53 55 56 55 55 56 57 57 57 56 57 57 55 53 52 50 50 50 48 45 43 42 41 39 37 37 36
49 50 51 53 55 55 56 57 55 56 56 58 57 57 57 57 56 55 53 52 52 51 48 47 47 47 46 45 43 41 39 38

GFSFLT2_sfc_dewp_087.txt.gz
Dewpoint
62 61 66 66 66 66 66 66 67 67 68 68 68 68 67 67 66 66 65 64 63 62 61 62 63 63 62 62 61 60 57 56
61 62 63 65 66 66 65 66 66 67 68 67 67 67 67 67 66 65 64 63 62 61 61 62 63 62 61 61 61 59 57 57
61 60 60 64 65 65 65 66 66 67 67 67 66 66 66 64 64 64 64 63 62 61 59 61 61 61 60 59 56 54 56 57
61 63 62 60 64 64 64 64 65 66 66 66 66 66 65 63 64 64 63 62 62 60 57 55 50 50 52 51 47 49 52 55
62 61 63 61 60 62 63 64 64 64 64 64 64 65 64 63 62 60 59 59 55 53 51 43 42 43 42 41 42 44 47 51
61 60 62 62 63 63 62 62 61 62 62 63 64 63 62 61 59 57 56 55 52 51 48 43 41 41 43 43 43 46 49 52
60 61 61 61 61 60 60 59 59 60 61 62 62 61 60 59 56 54 54 53 52 48 44 42 41 39 41 43 44 45 47 50
58 58 61 61 60 59 58 56 59 60 60 60 60 60 59 57 54 52 53 52 52 47 43 41 39 39 39 43 44 44 45 49
56 56 57 57 58 56 56 58 60 59 60 59 58 58 58 55 53 52 52 53 52 47 43 41 39 38 38 40 44 44 44 47
56 56 55 55 54 56 58 59 60 60 59 59 59 58 56 56 55 53 54 53 52 48 45 42 41 39 38 38 38 42 43 45
55 55 56 55 56 57 57 57 58 59 59 59 59 59 57 56 56 55 55 53 52 48 44 43 40 39 38 38 38 36 39 44
55 55 55 56 55 55 56 56 56 57 58 58 59 60 59 57 56 55 54 52 50 46 43 43 41 40 38 38 38 38 36 41
55 55 55 55 55 53 53 54 55 56 56 57 57 58 59 57 56 55 53 51 49 45 44 43 43 43 42 42 43 42 39 38
54 54 55 54 53 49 50 52 54 55 57 56 57 56 58 58 57 56 52 50 47 45 44 44 44 44 42 41 39 41 42 40
53 53 53 52 52 50 49 52 54 53 55 56 56 57 57 59 58 57 55 52 48 46 45 44 44 45 44 42 38 37 37 37
52 53 52 51 50 49 48 47 47 48 52 55 55 57 57 58 58 57 54 52 49 47 46 45 45 43 44 43 40 39 35 34
52 52 52 51 50 50 48 48 48 53 54 55 55 57 58 58 58 56 55 52 50 49 47 46 46 45 44 44 41 39 36 34
52 52 51 51 50 50 49 49 51 53 54 54 55 56 57 57 58 56 55 54 51 50 50 50 48 47 44 43 41 39 38 36
52 52 51 51 50 50 50 50 52 52 52 54 55 55 55 56 56 56 55 54 52 52 51 49 48 46 44 43 43 42 40 40
51 51 51 51 51 50 50 51 51 53 54 55 56 55 55 56 56 57 55 53 52 50 50 48 48 47 46 46 45 45 44 43

GFSFLT2_sfc_dewp_090.txt.gz
Dewpoint
63 64 66 66 66 67 66 67 67 68 68 68 68 67 66 66 66 66 64 63 64 65 64 63 63 62 62 61 60 59 55 54
60 61 64 65 64 66 65 65 66 66 67 67 67 66 66 66 65 64 63 62 63 64 63 63 63 62 62 61 61 59 56 55
61 60 61 63 65 66 65 65 64 65 66 66 66 66 65 63 63 63 62 62 62 64 64 63 62 62 61 61 58 57 57 57
60 61 61 62 65 65 64 64 62 64 66 66 65 65 63 62 62 62 62 61 62 63 62 61 58 56 57 56 53 55 57 57
62 62 62 61 62 64 64 64 62 62 65 65 64 64 62 62 61 59 57 57 53 54 51 50 50 47 47 48 48 51 53 55
61 61 61 62 62 64 63 61 61 61 64 64 64 63 61 59 57 58 55 53 50 47 45 45 44 43 43 43 44 48 50 53
60 61 61 61 62 62 61 60 60 61 63 64 64 62 60 59 57 55 53 52 49 44 42 42 42 43 42 43 45 48 50 52
59 60 60 60 61 61 61 61 60 62 63 63 64 62 60 57 54 53 53 52 47 43 41 41 41 42 43 44 44 45 49 53
58 58 59 59 59 59 60 60 61 61 62 61 60 60 59 56 53 52 52 53 48 43 42 41 40 40 43 44 44 44 47 52
57 58 57 58 58 58 59 60 61 60 60 59 59 59 58 55 54 52 53 52 47 44 42 41 40 40 40 42 44 44 45 48
56 56 56 55 57 57 58 59 59 59 59 59 58 58 57 55 55 53 54 53 48 44 44 42 40 39 38 39 41 42 44 45
56 56 56 56 57 57 57 57 58 59 58 58 58 58 57 56 55 54 54 52 50 46 43 43 41 40 37 38 39 38 39 45
55 55 55 55 56 56 56 55 56 56 57 57 58 58 57 56 55 55 53 52 50 46 44 43 43 43 41 41 42 41 39 38
54 55 55 53 55 55 55 55 54 56 57 57 58 59 58 57 55 54 53 52 50 47 45 44 44 44 41 41 39 41 43 41
53 54 55 53 53 53 53 53 54 53 55 56 56 57 58 58 56 55 54 52 50 47 46 45 43 44 44 42 39 38 39 40
53 53 54 53 52 51 52 52 49 47 52 54 55 57 56 58 58 56 55 53 50 49 48 48 46 43 44 44 41 41 38 36
53 53 52 52 51 50 49 49 49 51 52 53 54 55 56 56 57 56 55 54 53 50 49 47 48 46 44 44 42 40 38 36
52 52 52 51 50 49 49 47 48 49 50 52 53 53 55 56 57 57 57 55 53 52 51 49 48 48 46 45 43 41 39 37
52 52 51 51 50 49 49 48 48 48 48 50 52 53 53 54 55 55 55 55 54 52 51 51 50 48 48 46 44 43 43 43
51 51 51 51 51 50 50 49 49 50 50 51 52 53 53 54 55 56 56 55 54 53 52 52 50 50 47 46 45 45 44 44

GFSFLT2_sfc_dewp_093.txt.gz
Dewpoint
64 65 65 66 67 67 68 68 68 68 67 67 66 67 66 67 67 66 65 65 65 66 64 63 63 62 61 61 59 58 53 53
64 65 65 66 66 65 67 67 67 67 67 66 66 66 66 66 65 65 65 67 66 65 64 63 62 62 61 61 60 59 52 53
63 63 65 66 65 66 66 67 67 67 67 66 65 65 65 64 63 64 65 66 65 64 63 63 62 61 61 61 59 53 53 52
62 63 63 63 65 66 66 67 68 68 68 66 65 66 65 61 61 63 64 65 64 63 63 62 59 57 57 58 54 56 54 53
61 62 63 63 63 65 65 64 65 66 68 66 65 65 63 61 60 58 61 63 61 60 60 56 57 56 55 56 56 56 55 53
62 62 62 64 63 64 63 63 63 66 65 66 64 63 62 61 57 56 56 59 60 58 56 56 55 55 55 56 56 55 54 54
61 61 62 62 62 62 63 61 62 64 64 65 64 61 61 59 58 54 52 54 55 54 54 51 51 50 50 52 55 56 56 54
60 61 61 61 61 62 63 61 61 63 64 63 64 62 60 58 57 54 52 51 52 51 50 48 45 44 44 45 47 52 55 56
59 60 60 60 61 62 61 60 61 62 63 64 64 62 60 58 56 54 51 50 50 48 47 45 44 42 44 45 45 49 52 57
58 58 59 59 60 60 60 61 61 62 63 63 63 62 59 58 56 54 54 50 48 46 44 44 44 43 45 44 44 46 52 56
57 58 57 58 58 60 60 61 61 62 62 61 61 61 59 56 56 55 55 50 48 45 45 44 43 43 43 45 45 44 47 52
57 57 57 57 59 59 60 60 60 60 61 60 60 60 59 57 57 56 54 50 48 46 46 45 43 42 36 41 43 43 45 47
56 56 57 57 57 57 57 57 58 59 59 59 59 59 58 58 56 57 55 52 50 49 47 47 44 44 41 41 42 42 43 43
56 56 56 56 56 57 57 57 57 58 59 59 59 59 58 57 56 56 55 54 52 50 48 48 47 47 41 41 39 41 42 42
55 55 56 56 56 56 56 56 56 57 57 58 58 58 57 57 57 56 57 55 54 52 50 48 47 46 47 44 42 39 42 44
54 55 55 55 54 54 55 54 54 54 56 56 57 58 59 58 57 56 56 56 55 54 53 52 50 45 45 45 46 45 41 41
54 54 54 54 54 54 53 52 54 53 55 56 56 56 57 58 59 58 58 56 57 56 54 52 53 51 48 47 45 43 43 41
54 54 54 53 53 53 54 53 53 50 52 53 55 55 57 57 57 58 58 58 57 57 57 55 54 54 51 50 47 45 44 44
53 54 53 52 52 52 52 53 53 52 51 52 53 53 54 55 57 58 57 59 58 58 57 56 55 54 53 50 49 49 48 46
53 52 52 52 52 52 52 51 50 51 52 52 53 53 53 55 56 56 57 58 58 58 57 57 56 54 52 50 52 50 49 47

GFSFLT2_sfc_dewp_096.txt.gz
Dewpoint
63 64 64 65 67 69 68 69 68 68 67 67 67 67 67 67 67 67 67 67 67 65 64 63 63 62 61 60 59 60 50 50
64 63 63 62 67 66 65 67 67 67 67 67 66 66 66 67 67 66 66 67 66 64 64 63 62 61 61 60 59 58 51 51
65 62 61 62 65 65 64 65 67 66 66 66 65 65 65 65 64 65 66 66 65 64 63 62 61 61 61 60 59 49 51 50
63 63 63 63 64 64 64 65 67 67 66 67 62 65 64 61 64 66 66 66 64 63 63 62 58 53 54 58 50 51 50 51
62 63 65 65 66 67 67 65 66 67 66 64 64 64 64 62 60 62 64 64 60 59 59 53 54 52 52 51 53 52 51 51
63 63 64 65 65 66 65 65 66 66 66 64 66 64 64 61 56 59 61 59 59 58 55 56 56 53 52 54 53 51 50 50
61 63 64 64 65 66 65 67 65 66 65 65 64 62 61 59 58 58 58 58 58 57 56 56 54 53 52 53 52 52 53 50
61 62 62 63 63 63 63 63 64 65 66 65 63 62 60 58 57 55 57 58 57 57 55 52 50 50 51 51 51 51 52 52
60 61 61 62 62 62 63 63 62 64 64 64 62 61 60 58 57 54 53 55 57 56 54 50 46 43 44 45 47 51 51 53
60 60 61 61 60 61 62 63 62 63 64 64 62 60 58 59 55 54 53 54 54 52 50 47 45 43 43 43 43 46 50 53
59 60 60 59 60 61 61 61 62 62 63 63 62 60 58 56 55 54 54 52 51 50 48 49 47 45 42 43 44 44 49 49
58 59 59 59 60 60 61 61 62 62 62 62 62 60 59 57 56 56 53 50 50 49 50 49 48 46 39 42 45 44 45 49
57 58 58 59 59 58 59 58 60 61 61 61 61 59 58 58 54 56 54 52 52 52 51 50 48 47 43 43 44 45 46 44
57 57 58 57 58 58 59 59 59 60 60 60 60 60 58 57 56 56 55 52 53 53 52 49 49 48 45 42 40 41 42 43
56 56 57 57 58 57 57 58 58 58 59 59 59 60 58 58 55 55 56 54 53 54 52 52 49 48 48 44 42 42 43 42
56 56 56 57 57 56 56 55 54 56 58 58 59 59 58 58 56 56 57 55 55 54 52 53 51 48 48 47 50 48 44 44
56 56 56 56 56 56 56 55 54 58 57 57 58 58 58 58 58 57 57 56 57 57 55 55 52 51 49 49 48 47 47 45
56 55 55 55 55 56 55 55 54 55 56 56 56 57 58 57 57 57 58 56 56 57 58 58 56 55 53 53 51 50 47 47
55 55 54 55 56 55 55 55 55 54 54 55 53 53 55 56 57 58 57 57 57 58 58 58 58 56 57 55 54 53 52 50
54 54 54 54 54 54 54 54 54 54 54 53 54 52 52 55 55 55 56 56 58 59 60 58 58 58 58 57 56 57 53 50

GFSFLT2_sfc_dewp_099.txt.gz
Dewpoint
66 65 64 63 63 63 66 68 68 68 68 68 68 67 66 67 67 66 66 65 65 64 64 63 62 61 61 60 58 59 49 49
65 62 63 64 64 63 63 68 67 67 67 67 66 66 66 66 67 66 66 65 65 64 63 63 62 61 60 60 58 59 49 48
65 64 63 63 64 64 65 67 66 66 67 66 65 65 65 65 65 66 66 64 64 64 63 62 61 61 59 59 60 49 49 49
64 64 62 62 65 63 65 65 66 67 67 67 64 66 64 61 65 66 65 64 64 63 63 62 57 50 52 57 52 50 50 50
62 64 63 62 63 65 66 64 63 66 67 66 64 65 66 65 65 65 64 62 57 58 58 52 52 50 51 53 52 51 50 51
63 63 64 65 65 67 67 63 62 66 68 66 65 65 65 65 63 61 62 59 57 56 54 56 54 52 52 53 52 50 49 52
63 63 64 65 65 67 67 64 66 66 65 66 64 63 65 63 61 61 59 59 57 57 54 54 55 53 52 52 52 51 51 51
61 63 63 63 65 65 66 65 65 65 65 65 66 65 64 59 61 60 59 58 57 56 55 55 54 51 52 52 51 51 51 52
59 60 62 62 63 64 66 66 66 65 64 64 65 64 62 60 60 59 57 58 61 58 57 54 51 49 50 50 50 51 51 52
60 60 61 62 62 63 65 64 65 64 64 63 63 63 61 61 59 58 59 58 58 56 55 50 48 46 45 45 47 49 51 52
59 60 60 61 61 62 63 64 63 64 64 63 63 61 60 57 58 57 60 57 57 56 53 52 48 45 43 44 45 45 50 49
60 60 60 60 61 62 61 61 63 63 64 63 62 61 60 58 56 58 56 55 55 54 54 51 49 48 41 43 46 45 47 49
58 59 59 60 59 60 60 60 61 62 63 62 61 60 59 58 54 57 56 53 54 55 54 55 51 51 45 45 46 47 47 46
57 58 59 59 59 59 59 60 61 61 62 61 60 60 59 58 57 57 56 54 55 56 56 52 51 51 47 45 44 43 45 46
57 57 58 58 58 59 59 59 59 59 60 60 60 59 58 57 57 57 57 56 55 56 56 54 50 50 54 47 43 43 44 45
57 57 57 58 58 57 58 57 56 58 59 59 59 59 57 57 57 57 58 56 56 57 55 56 54 50 50 48 51 50 47 47
57 57 56 57 58 58 57 57 57 58 59 59 59 59 58 57 56 58 59 57 58 58 57 57 55 54 50 49 51 50 52 48
55 56 55 57 57 57 57 56 56 58 57 57 57 59 59 59 57 58 59 58 58 59 59 57 56 56 55 54 51 50 49 50
56 55 55 56 56 56 56 56 55 56 57 57 55 56 57 57 57 58 57 58 58 59 59 59 59 58 57 56 57 55 55 54
55 54 54 55 56 56 56 56 54 53 56 57 56 55 57 57 55 55 55 57 57 58 60 58 58 60 60 59 57 57 57 56

GFSFLT2_sfc_dewp_105.txt.gz
Dewpoint
66 65 65 67 68 67 69 68 68 67 67 67 67 66 66 67 67 67 66 65 65 65 65 63 63 62 60 58 60 59 55 55
64 64 63 62 63 64 65 66 66 66 67 66 66 66 66 66 66 66 65 65 65 65 64 63 62 60 58 60 59 58 54 55
63 63 61 62 62 63 63 65 65 65 64 63 64 65 66 65 65 65 65 65 64 64 63 61 60 59 59 59 57 53 54 55
63 63 62 62 63 62 62 62 63 63 63 60 65 65 65 63 65 65 64 64 63 63 62 61 58 54 53 56 52 53 54 55
63 63 62 61 62 61 62 62 62 61 60 60 64 65 65 65 64 63 63 62 60 59 57 54 52 52 52 51 53 54 54 55
62 62 61 60 61 61 61 61 60 61 60 63 63 65 65 63 62 61 60 59 58 55 52 52 50 51 52 53 52 54 54 55
61 62 61 61 62 61 63 62 62 62 61 64 64 64 64 62 60 59 57 57 56 52 52 50 50 50 52 53 53 54 54 55
61 61 62 62 62 61 63 61 61 63 61 64 64 63 63 61 59 56 56 55 54 51 53 53 52 51 53 52 53 54 54 55
61 61 63 62 63 62 63 61 61 63 64 65 64 64 63 62 59 55 56 55 53 53 54 55 53 53 52 52 53 54 54 54
60 61 61 61 63 63 63 61 61 63 64 64 64 64 63 62 60 56 58 55 54 55 55 55 52 52 52 52 51 53 54 54
59 60 60 60 60 63 63 63 62 63 63 64 63 63 62 61 61 59 59 56 57 56 56 54 51 51 50 50 50 52 53 53
59 59 59 60 59 60 61 63 63 62 62 63 63 62 61 61 61 59 61 57 59 59 54 53 50 50 47 48 49 50 52 52
58 59 60 58 57 57 57 59 62 62 61 62 62 61 61 61 60 60 61 58 59 57 54 50 49 48 47 47 47 47 49 50
57 58 59 58 58 58 58 58 59 63 62 62 61 61 60 59 58 58 59 59 58 56 53 52 50 52 47 47 44 44 46 47
56 58 58 57 59 59 58 58 59 59 61 61 61 60 60 57 57 56 58 59 56 55 52 52 51 52 47 47 45 43 44 46
56 57 58 59 59 58 58 57 57 59 58 61 60 60 59 57 57 56 56 58 56 55 54 53 51 49 50 50 50 49 45 42
56 57 58 58 58 58 57 57 58 59 60 60 60 60 59 57 58 57 57 56 56 54 56 56 53 52 50 49 48 49 49 47
56 57 57 57 57 58 57 57 57 57 59 58 59 59 58 57 58 57 57 57 57 57 56 56 56 54 51 51 49 48 47 48
56 56 56 57 57 57 56 57 57 57 57 57 57 57 57 57 57 57 58 58 58 57 56 56 56 56 53 52 52 50 50 49
56 55 55 57 57 57 57 57 57 57 57 56 57 56 57 57 56 57 58 58 57 57 57 57 56 56 56 56 55 54 54 53

GFSFLT2_sfc_dewp_108.txt.gz
Dewpoint
66 67 68 69 69 69 69 69 68 67 66 66 67 66 67 67 67 67 67 66 66 66 65 64 63 62 61 61 60 60 56 56
64 64 64 63 65 67 67 68 66 66 66 65 65 64 65 66 66 67 67 66 66 65 64 63 62 61 61 60 60 59 55 56
63 62 61 61 62 63 65 65 65 65 65 64 63 62 64 66 65 66 66 65 65 65 63 62 61 61 60 60 58 55 55 56
62 61 60 61 63 61 61 62 65 65 64 64 65 63 65 65 65 65 65 65 65 64 63 61 58 55 56 57 54 55 55 56
62 62 61 61 61 60 60 62 62 64 63 64 65 64 65 65 64 64 63 64 62 61 59 55 53 52 52 53 54 54 55 56
62 62 61 60 60 59 60 61 62 62 62 63 63 63 64 64 63 62 61 61 58 56 54 52 51 51 53 53 54 54 55 56
61 61 60 60 59 59 60 60 61 61 61 61 62 63 63 63 62 61 60 58 56 53 51 51 50 51 53 53 54 54 55 56
61 61 60 60 61 60 61 62 61 61 61 61 60 63 63 62 60 59 57 56 53 51 52 49 49 50 53 53 54 54 55 56
60 61 61 60 61 60 62 61 61 61 61 61 61 63 63 61 59 56 56 54 51 51 53 51 51 51 52 53 54 54 55 55
60 62 61 61 62 62 62 61 62 62 61 63 62 62 63 60 57 54 55 54 50 52 53 53 52 52 52 53 53 54 54 54
59 60 60 60 62 62 62 60 61 63 62 63 63 63 62 59 56 54 55 53 50 53 54 54 51 51 51 51 53 53 53 54
59 59 59 60 60 62 62 61 62 63 63 63 63 63 62 60 56 55 55 54 51 55 54 54 52 51 49 49 52 53 54 53
58 57 58 58 56 59 61 60 61 61 62 62 63 63 62 61 57 57 56 54 52 55 55 52 50 49 48 47 48 50 52 53
57 58 58 57 57 57 58 60 61 61 62 62 63 62 62 61 59 57 56 55 56 56 53 51 50 48 47 46 44 44 47 49
57 58 59 58 57 57 56 58 59 60 61 61 62 61 61 61 60 58 58 57 58 56 53 51 49 50 47 46 43 42 44 46
57 58 58 58 58 57 56 55 56 58 61 60 62 61 60 60 60 59 59 58 57 56 53 52 50 47 49 49 48 47 45 43
56 58 58 58 58 58 57 57 57 56 58 60 60 61 60 58 58 59 60 59 58 55 54 55 53 51 48 49 49 49 49 44
56 57 57 58 58 58 57 57 57 57 58 58 59 60 60 58 58 58 59 59 57 57 57 56 55 54 53 50 49 48 48 48
56 56 56 57 57 58 57 57 58 58 58 59 58 59 59 58 58 58 58 59 58 58 57 56 56 55 54 53 51 49 50 49
55 56 56 56 56 57 57 56 57 57 58 58 58 58 58 58 58 58 58 58 58 58 57 56 56 56 55 54 54 52 52 51

GFSFLT2_sfc_dewp_111.txt.gz
Dewpoint
67 68 69 69 69 69 69 69 69 68 67 66 67 66 66 67 67 67 67 66 66 67 66 65 63 63 63 62 61 60 56 56
65 66 67 68 69 68 68 68 68 67 65 65 65 65 65 66 65 66 67 66 66 66 64 63 62 63 62 61 61 60 56 56
63 63 64 64 65 67 67 68 66 66 65 65 64 64 64 64 65 66 66 66 66 65 64 62 62 62 62 61 59 56 56 56
63 62 61 61 63 62 63 65 66 65 64 65 64 62 62 63 65 66 65 65 65 64 63 61 60 58 59 58 55 56 56 56
62 62 60 60 61 60 60 60 64 65 64 64 63 62 63 65 65 65 64 64 63 62 60 55 55 56 54 54 55 55 55 56
61 61 60 60 60 60 61 61 62 64 64 63 63 62 64 62 63 63 62 62 60 59 56 53 52 53 53 54 54 55 55 56
61 61 60 60 59 58 59 60 61 63 63 64 64 63 63 63 64 62 61 58 58 55 53 52 51 53 53 54 54 55 55 56
61 61 61 59 59 58 59 59 60 62 62 63 64 63 63 63 63 61 59 58 55 54 52 51 51 53 53 54 54 55 55 56
61 61 60 59 59 58 60 60 60 60 61 62 62 63 63 63 62 59 58 55 52 51 51 50 51 53 53 53 54 55 55 55
61 61 60 59 60 59 60 61 61 61 61 61 62 62 63 61 60 58 56 53 51 51 51 50 51 52 53 53 53 54 55 55
60 60 60 59 59 60 61 59 61 62 62 61 61 63 61 60 59 56 55 52 50 50 52 50 50 52 53 53 53 53 54 55
59 60 59 59 61 62 61 59 61 62 62 61 61 63 61 60 57 55 53 50 49 51 52 52 51 52 52 52 53 53 54 54
58 58 58 59 59 60 59 59 61 61 62 61 61 62 61 58 56 55 53 48 49 52 52 51 51 51 49 49 49 53 53 53
58 58 58 57 58 59 60 60 61 61 62 62 62 62 61 59 55 55 52 49 50 53 52 51 51 50 48 47 45 46 50 51
57 58 58 57 56 56 58 60 60 60 61 61 62 62 62 60 56 55 52 51 49 53 53 52 50 49 48 47 44 43 45 47
57 57 57 56 56 56 57 58 58 59 60 61 62 62 62 61 58 55 53 53 50 53 54 53 51 48 48 47 47 46 44 42
57 57 57 57 57 56 55 54 56 59 60 60 61 61 61 61 60 57 56 54 56 54 55 54 51 49 48 49 49 49 48 44
56 56 57 58 58 56 55 54 55 55 58 59 60 61 61 61 61 60 59 58 57 56 55 54 53 51 51 49 49 48 48 47
56 56 56 57 57 57 56 56 57 56 56 57 58 60 60 60 60 60 60 59 58 56 56 55 54 53 54 52 51 50 50 50
56 56 56 56 57 57 57 57 57 57 57 57 58 58 60 59 59 59 60 58 57 57 56 56 56 56 55 55 54 53 52 50

GFSFLT2_sfc_dewp_117.txt.gz
Dewpoint
69 70 70 69 69 69 69 69 69 69 69 68 68 67 67 67 67 67 67 67 67 67 67 67 66 65 64 63 62 62 59 58
69 69 69 70 70 68 68 68 68 68 68 67 67 66 66 67 67 67 67 67 67 67 67 66 65 64 63 61 61 61 58 57
69 67 68 68 69 70 69 68 68 67 67 66 65 65 66 65 63 65 66 66 67 66 65 65 64 63 62 61 60 57 58 57
67 67 67 68 68 69 70 69 70 69 69 67 67 65 64 63 64 65 66 66 66 65 64 64 62 60 59 59 57 58 57 57
66 66 67 67 67 68 70 70 69 69 69 68 67 65 65 65 65 66 67 66 64 63 62 62 61 60 58 58 58 58 57 56
65 67 66 66 67 67 68 69 68 67 67 67 66 65 65 65 65 66 66 64 64 62 61 61 62 60 59 58 58 57 57 56
64 66 67 66 65 66 66 66 67 67 66 65 65 65 65 63 64 65 64 63 63 61 60 59 60 59 58 58 58 58 57 56
62 65 66 66 66 65 64 64 65 66 66 64 65 65 65 64 63 64 64 63 61 60 58 58 58 58 58 57 57 56 56 58
61 63 65 65 65 64 63 63 63 65 66 65 64 63 63 63 63 63 63 63 60 58 57 57 56 57 57 56 56 57 56 57
58 60 64 64 64 63 62 62 63 63 64 64 64 64 63 63 63 62 62 61 59 56 56 55 55 56 55 55 54 55 57 57
57 61 63 64 63 63 62 61 61 61 62 63 64 63 63 63 62 62 60 59 58 57 55 55 55 55 54 54 54 54 56 55
57 61 62 63 63 62 61 61 60 60 61 61 62 63 63 62 62 61 59 58 57 56 55 54 55 54 52 53 55 55 55 56
59 61 62 62 61 60 60 59 59 60 61 61 62 62 62 63 62 60 59 57 57 58 55 55 54 55 54 53 54 55 56 55
60 60 61 61 61 61 61 60 61 60 61 62 62 62 61 62 61 59 58 57 56 55 55 54 54 55 52 52 51 52 54 54
59 60 60 61 61 61 61 61 61 61 61 61 61 61 61 60 60 59 57 55 54 56 55 54 52 54 55 51 50 49 51 53
59 60 60 60 61 60 60 59 58 60 61 61 61 60 59 59 59 58 56 54 53 55 54 54 54 53 54 51 53 52 49 49
60 60 59 59 60 60 59 59 59 61 61 60 61 61 59 58 58 57 54 53 54 54 55 55 54 54 53 51 51 50 52 49
59 59 58 58 59 59 59 59 58 60 60 60 61 61 60 59 57 56 55 53 53 53 54 55 56 55 54 52 50 48 48 47
57 58 57 58 58 58 58 59 60 59 60 60 60 60 61 59 58 57 56 55 54 53 54 55 56 55 56 53 52 50 51 51
56 56 56 57 58 58 60 60 59 59 60 61 60 60 60 61 60 59 57 56 53 54 55 55 56 57 56 56 55 54 54 52

GFSFLT2_sfc_dewp_120.txt.gz
Dewpoint
69 70 69 69 69 69 69 69 69 69 70 69 69 67 67 67 67 68 68 68 68 68 68 67 66 66 64 64 63 64 56 53
69 70 70 70 70 68 68 68 68 68 69 68 67 67 66 67 67 67 67 68 68 68 67 66 65 64 63 62 62 62 54 54
70 70 70 70 69 70 69 68 68 68 68 67 66 66 66 66 64 66 67 67 67 67 66 65 64 63 62 62 62 54 54 53
69 70 70 70 69 70 70 70 70 70 69 69 66 66 66 62 64 66 67 66 67 66 65 64 63 61 60 61 56 55 54 53
66 69 70 70 69 69 69 70 69 68 68 69 67 65 67 63 61 65 66 66 65 66 64 62 62 58 57 57 57 57 53 52
66 67 68 69 68 68 69 70 70 69 68 69 69 67 64 62 61 62 64 66 66 64 63 62 59 57 58 58 58 54 53 52
63 66 68 68 68 69 69 69 69 69 70 69 69 67 64 63 64 63 65 66 65 62 61 58 59 60 58 59 57 56 55 51
59 64 66 68 67 68 68 68 68 69 69 68 69 68 65 64 64 67 65 65 63 62 59 57 58 59 59 59 57 54 54 54
52 58 64 67 68 67 66 67 67 68 68 68 68 67 66 64 64 64 65 64 64 62 60 57 57 58 59 58 56 55 52 55
42 49 59 65 66 67 66 66 65 67 66 67 67 67 66 65 64 63 64 64 63 60 58 57 57 58 58 56 54 54 55 54
42 48 57 62 65 65 66 66 65 65 66 66 66 66 65 64 64 63 64 62 61 59 59 58 57 57 56 55 54 54 55 52
46 46 54 61 64 66 65 63 63 64 66 64 65 66 64 64 63 62 63 61 60 59 58 57 57 56 53 53 54 54 55 54
52 53 57 61 63 64 63 61 61 61 63 63 62 64 64 63 63 62 61 60 60 59 58 58 55 57 56 55 54 56 56 54
55 56 59 60 61 62 62 62 62 61 61 62 62 62 64 63 63 62 60 60 59 58 57 56 55 57 53 53 52 53 54 54
55 56 59 60 60 61 62 62 62 61 61 61 62 62 63 63 62 61 60 60 58 58 57 56 55 56 56 51 50 49 52 54
57 57 58 60 61 61 61 60 60 61 61 63 63 63 63 62 62 61 60 59 58 58 57 56 57 55 55 51 52 50 49 51
58 58 60 60 61 62 61 60 59 60 61 62 62 62 61 61 61 59 59 59 58 57 57 59 58 56 55 53 53 53 53 48
58 58 59 60 61 62 61 61 59 60 61 61 62 60 60 60 58 58 58 58 58 57 57 58 58 57 55 55 52 51 50 49
55 57 57 59 60 60 60 60 60 60 60 60 60 60 58 58 58 57 57 57 57 57 56 58 58 57 58 55 53 51 49 49
53 55 57 58 59 60 60 60 59 60 60 59 60 60 60 59 58 57 56 55 56 56 56 57 58 59 58 57 53 52 50 49

GFSFLT2_sfc_dewp_123.txt.gz
Dewpoint
69 70 69 69 70 70 69 69 69 70 70 70 70 68 67 67 68 68 68 68 68 68 68 67 67 66 65 64 64 64 60 55
68 69 70 70 70 69 68 68 68 69 69 69 68 67 67 68 68 67 68 69 68 68 67 66 66 65 64 63 62 63 57 51
69 70 69 70 69 69 69 68 68 68 69 68 66 67 66 66 65 67 68 68 68 68 66 65 64 64 63 63 62 53 52 50
68 69 70 70 67 69 69 69 69 69 69 70 69 69 67 63 64 66 67 67 67 66 66 64 63 62 61 62 57 53 51 52
65 68 70 70 69 69 68 67 68 68 69 69 70 66 68 65 68 63 66 67 66 66 65 66 64 62 60 59 57 55 51 55
63 66 69 69 68 68 69 67 67 67 67 70 70 68 69 65 67 66 63 64 66 64 65 64 63 60 57 56 59 52 50 55
60 65 68 68 69 68 69 67 67 67 67 70 69 67 66 66 66 64 62 65 65 65 65 64 60 55 55 59 57 53 53 52
57 62 66 68 68 68 68 69 67 68 67 68 71 68 67 64 65 66 65 67 66 65 64 62 58 57 58 59 55 53 52 54
50 57 62 67 68 68 67 68 67 67 67 70 70 69 68 66 64 66 65 66 64 64 64 61 58 57 59 59 54 53 51 53
38 37 57 64 66 67 67 67 67 67 68 69 69 70 68 67 65 65 66 64 64 63 62 61 58 56 59 57 53 52 52 53
40 44 52 60 64 65 68 67 67 66 67 67 68 69 68 67 66 64 65 65 63 62 62 60 57 55 58 57 55 51 52 50
48 47 52 55 62 65 65 67 66 66 66 65 67 68 68 67 66 64 65 63 62 62 61 60 56 56 56 55 54 56 54 53
49 50 55 51 54 59 63 65 66 64 65 66 67 67 67 66 65 64 63 62 61 61 60 58 57 57 57 55 56 57 57 54
53 52 54 54 53 58 62 65 62 62 63 65 65 65 65 65 64 63 63 62 60 60 60 58 55 59 55 53 53 55 55 54
54 53 54 57 57 59 63 63 62 62 62 62 63 63 64 65 64 63 62 61 60 60 60 58 54 57 58 54 51 50 53 54
57 56 55 57 60 61 62 61 60 60 61 62 62 62 62 62 63 63 61 61 60 60 60 59 56 55 57 55 55 52 51 52
57 58 57 58 60 61 61 61 61 62 62 62 62 62 62 63 64 63 61 61 60 60 60 59 57 56 55 55 54 53 55 51
53 56 57 59 61 62 62 62 61 61 60 61 61 63 63 62 62 62 62 60 60 59 60 58 58 57 56 55 53 52 51 52
53 51 55 58 60 61 62 62 62 61 60 60 62 61 60 60 61 60 60 60 59 59 59 58 57 56 55 55 55 53 53 52
53 52 52 56 59 60 61 62 62 60 60 60 61 61 60 60 59 59 58 58 59 59 59 59 58 58 57 57 56 55 53 52

GFSFLT2_sfc_dewp_126.txt.gz
Dewpoint
70 69 69 70 70 70 69 70 69 70 70 71 70 69 67 66 67 66 66 67 68 68 68 67 67 67 66 65 64 65 61 62
70 70 70 70 70 69 68 68 68 69 70 70 68 67 66 66 67 68 68 68 68 68 67 67 66 65 65 64 63 64 59 61
71 70 70 70 70 70 68 68 68 68 70 69 67 68 66 67 66 67 68 68 68 67 66 66 65 64 63 63 63 59 57 61
71 71 70 70 68 70 70 69 69 69 70 70 70 69 67 64 65 66 68 68 67 67 66 64 64 64 63 62 60 58 58 60
68 71 71 70 68 70 69 69 69 69 69 70 70 69 68 66 67 66 68 67 67 66 64 64 65 63 62 61 60 58 58 58
67 69 71 70 69 68 69 68 68 68 68 69 69 69 68 67 65 66 66 65 66 65 64 64 64 62 61 61 59 57 57 58
66 68 70 70 70 69 68 68 68 68 68 68 69 68 67 66 66 66 65 65 65 64 64 63 63 62 61 57 57 57 57 57
66 67 69 69 69 69 67 68 68 68 68 68 69 68 67 66 66 65 65 65 65 64 64 63 63 63 58 57 57 54 55 56
62 66 69 69 69 69 68 67 68 67 67 69 69 69 68 66 65 65 65 65 65 64 63 63 62 63 59 58 57 55 54 56
56 58 64 69 68 68 67 66 67 68 68 68 69 69 68 67 65 65 66 64 64 63 62 61 61 60 59 58 57 53 54 55
49 53 62 64 67 67 67 67 67 67 69 68 68 69 68 66 65 65 65 64 63 62 62 62 60 60 60 58 56 53 54 53
51 52 54 58 65 67 68 67 66 67 67 68 68 68 68 67 66 65 65 63 62 62 61 62 61 61 58 58 55 53 53 53
52 54 56 56 59 61 63 66 66 66 65 66 68 66 67 67 66 65 64 63 62 62 61 60 60 60 58 56 57 54 54 53
53 55 57 57 53 54 60 63 67 66 65 65 66 67 67 66 65 64 64 63 62 61 60 59 59 60 56 54 52 54 55 54
55 56 57 58 57 55 62 65 64 63 63 64 65 66 66 65 65 64 63 62 61 61 60 58 56 58 59 52 50 50 52 55
57 58 59 58 60 59 63 62 61 61 62 62 63 64 64 64 64 63 62 62 61 61 60 59 57 56 59 54 53 52 50 51
57 58 59 60 61 62 63 62 62 62 61 61 62 62 62 63 63 63 62 62 61 60 60 59 58 56 56 55 53 53 52 50
58 56 56 59 60 61 63 62 61 60 61 61 61 61 62 62 62 63 62 62 61 60 60 60 59 57 57 56 53 52 51 51
53 53 53 59 60 61 62 62 62 61 62 61 61 61 62 62 62 63 62 61 61 60 60 60 59 58 57 56 54 53 52 52
52 51 53 57 59 60 61 62 62 62 62 61 60 61 61 61 61 61 61 61 60 60 60 60 59 58 59 57 56 52 55 53